GFSNW_sfc_temp_000.txt.gz
Temp
54 53 52 54 53 54 64 68 64 69 70 66 64 61 63 56 63 65 63 63 60 58 57 55 55 53 57 60 61 55 57 53 49 52 57 59 59 54 54 45 39 45 42 45
53 51 52 53 53 54 72 70 68 71 69 55 53 60 59 61 62 60 61 59 61 61 56 51 55 56 58 60 60 57 58 51 46 48 53 57 54 55 54 50 47 41 36 47
51 50 51 51 53 53 70 69 57 66 69 65 63 60 58 57 62 60 62 59 62 59 56 58 53 54 57 58 59 48 56 53 48 45 49 53 49 52 54 51 41 44 45 50
50 50 51 53 53 53 70 67 60 60 55 58 63 63 61 58 56 61 63 59 60 58 51 53 52 56 57 57 53 57 57 47 50 52 54 53 51 50 52 50 49 42 48 51
50 51 51 53 52 53 68 65 62 62 59 60 62 54 60 59 57 61 58 58 59 61 55 56 52 56 56 55 57 56 55 46 45 43 49 51 47 51 52 52 52 51 51 50
50 50 51 52 52 57 69 62 63 68 48 56 58 57 60 60 61 58 63 63 60 53 59 63 61 61 59 58 55 51 50 46 41 37 44 43 37 46 51 52 53 52 45 54
52 51 52 52 52 56 68 65 67 59 50 55 59 59 61 60 60 58 59 63 55 59 63 62 61 58 56 56 53 55 40 43 39 35 37 32 48 57 56 52 54 57 56 55
53 52 52 52 52 52 66 63 66 59 37 56 55 59 59 59 60 58 59 58 58 64 61 52 40 45 39 42 48 49 51 44 34 32 36 44 49 52 51 48 49 55 53 54
52 52 52 51 51 52 64 61 61 63 43 51 61 59 61 56 55 55 53 57 60 60 51 45 36 41 43 45 45 46 46 44 41 36 30 30 48 53 56 55 43 53 51 48
52 52 52 51 51 52 65 61 59 66 54 59 60 59 58 60 58 56 55 55 52 57 42 38 39 43 46 43 36 36 36 35 34 35 32 41 54 54 55 36 41 50 46 45
51 51 51 51 51 51 62 59 58 64 54 59 59 60 58 58 61 53 54 54 51 46 38 36 39 36 45 44 48 44 43 38 34 35 31 30 54 53 41 50 48 45 46 48
51 51 51 51 51 51 55 64 59 59 62 59 59 60 62 63 68 61 55 56 55 55 45 39 38 36 34 40 39 51 42 48 45 43 45 57 58 54 55 50 47 50 48 50
50 50 51 51 52 51 56 63 59 61 52 57 60 59 61 65 66 68 57 54 58 55 57 49 41 35 45 34 39 41 52 55 45 45 51 54 55 58 55 51 47 47 47 51
49 50 50 50 52 51 54 60 59 59 51 37 54 58 59 63 64 65 66 60 57 56 55 39 37 37 52 39 49 47 53 53 48 44 50 53 55 53 49 48 47 46 52 51
48 49 49 50 51 51 58 60 60 61 60 45 51 56 57 60 62 63 63 61 57 51 42 36 39 46 46 44 42 44 55 52 41 37 49 49 49 49 50 47 49 51 50 50
49 49 50 50 51 51 61 58 60 60 61 49 42 55 53 56 60 59 59 61 56 55 47 41 48 54 50 35 36 48 56 57 52 48 52 52 50 49 52 51 51 51 51 52
49 49 50 50 50 59 57 56 56 54 61 45 42 45 50 51 54 53 56 55 55 52 48 44 47 50 50 35 35 50 52 51 50 49 48 46 50 49 50 50 51 51 53 53
49 49 49 49 50 51 53 56 52 55 52 47 40 38 43 50 44 42 46 43 47 48 47 41 43 46 44 36 49 48 48 47 49 49 51 51 50 50 50 52 52 49 49 50
49 49 49 50 48 46 48 49 52 55 54 44 37 36 36 48 41 41 41 45 38 45 37 38 42 38 36 44 46 44 43 45 48 49 50 50 48 49 49 49 49 47 46 47
49 49 45 37 42 48 49 48 45 41 43 43 37 47 41 48 38 37 39 39 38 35 36 40 34 35 41 43 43 46 47 49 49 44 42 45 45 46 46 46 47 46 45 43
45 39 37 43 47 46 42 36 37 36 34 37 36 37 36 40 38 36 36 34 34 33 36 35 35 37 42 45 46 48 49 49 48 49 48 48 47 45 44 43 43 41 40 40
45 44 45 43 41 36 35 34 32 33 34 34 34 35 37 35 41 37 34 33 33 31 40 32 32 43 44 46 46 46 48 48 47 48 47 46 45 45 43 42 41 40 37 34
45 40 34 36 34 32 32 31 32 32 35 35 34 33 36 36 37 32 34 31 32 37 30 33 40 43 45 46 46 45 47 45 41 46 46 46 45 43 38 36 37 34 36 37
37 34 32 33 32 33 34 36 36 36 36 36 35 33 35 33 32 32 31 30 34 28 26 30 40 43 45 45 44 45 44 37 38 42 43 39 36 36 35 33 33 32 33 35
36 36 31 32 32 35 35 35 36 35 37 37 34 33 38 31 30 31 29 26 27 30 31 37 42 43 43 42 42 43 40 35 36 42 38 34 34 34 35 36 35 35 33 32
36 33 31 32 32 32 33 34 33 36 34 35 37 33 31 29 31 27 28 28 28 33 36 40 42 41 40 41 41 41 41 39 40 40 39 38 34 33 37 36 34 33 33 32
33 31 33 32 33 34 34 36 35 37 35 32 34 30 29 29 28 27 31 29 34 37 39 41 39 40 41 42 41 36 37 38 39 40 39 39 37 34 33 33 39 37 36 33

GFSNW_sfc_temp_003.txt.gz
Temp
54 52 52 54 53 54 59 75 68 76 78 69 71 65 68 61 69 71 68 69 67 64 63 61 60 59 62 66 66 60 62 59 52 57 63 65 64 59 58 47 45 49 45 47
52 52 52 53 53 53 81 75 72 77 75 59 60 66 65 69 67 68 67 64 67 68 63 56 61 61 63 65 65 61 63 56 49 54 58 62 59 60 59 54 50 44 39 48
51 52 52 53 53 54 73 76 61 71 74 74 69 65 64 62 68 66 68 66 68 65 61 65 59 59 61 63 64 51 57 58 52 47 53 59 53 57 59 56 45 46 48 54
51 52 52 53 53 53 73 77 67 69 60 65 69 69 67 63 61 67 70 65 65 63 56 60 58 62 60 62 53 61 61 50 55 57 59 58 57 56 57 55 55 46 51 54
51 51 52 53 53 53 77 72 68 71 68 69 68 59 65 65 64 66 63 63 66 66 58 61 57 61 61 59 61 60 60 49 49 47 56 56 52 57 58 57 56 56 56 55
51 52 53 53 52 55 78 74 73 73 55 66 63 63 66 66 66 64 70 68 65 59 64 66 67 66 65 63 60 55 54 50 46 40 50 47 38 50 56 57 59 56 48 57
53 54 53 52 52 54 78 74 76 63 55 62 65 66 67 66 66 63 68 69 61 64 71 69 66 64 62 61 59 61 49 48 42 37 38 33 53 62 61 57 58 61 61 61
54 53 52 52 52 53 75 73 74 64 42 65 64 66 66 65 66 65 64 63 68 71 66 55 45 46 39 46 56 56 58 48 38 35 40 47 53 55 54 51 51 61 57 57
53 53 52 52 52 52 72 69 69 71 48 55 69 65 66 60 59 59 58 63 68 67 57 48 38 43 48 48 49 54 52 50 45 38 32 32 49 59 60 59 44 56 56 53
52 53 52 52 52 52 67 69 65 74 58 67 70 63 63 69 65 60 60 59 57 65 46 40 40 46 53 46 39 36 38 38 37 37 34 43 57 58 60 40 43 55 53 50
52 52 52 51 52 52 62 68 66 69 62 64 66 68 65 65 67 55 61 58 57 53 39 40 44 39 49 48 54 47 43 38 34 38 33 32 59 57 43 53 58 54 50 50
51 52 52 52 52 52 54 72 68 69 69 64 66 66 68 69 72 68 62 62 60 60 52 45 44 39 38 43 42 59 46 51 47 47 48 60 59 51 59 59 54 51 50 49
51 51 52 52 52 52 55 72 70 72 57 64 65 64 67 72 72 75 61 62 67 63 66 52 45 35 48 36 44 49 57 63 50 48 55 57 56 59 58 56 54 52 52 54
50 51 51 52 52 52 52 70 69 70 58 40 59 66 65 68 71 72 72 68 65 65 62 43 38 38 58 43 52 52 57 58 53 51 57 58 59 54 55 56 55 53 55 57
49 50 50 50 53 53 65 70 69 69 65 48 55 63 64 67 68 68 69 66 63 58 45 38 41 53 53 51 47 48 59 55 48 46 56 51 51 53 57 56 54 54 55 54
48 50 50 50 52 53 68 64 69 69 68 54 45 60 60 63 65 65 65 66 65 63 54 43 56 62 54 37 41 56 59 62 62 54 56 51 52 54 55 56 56 55 54 55
49 49 50 50 50 62 61 61 61 56 69 51 45 50 56 59 62 62 62 62 61 59 53 47 49 53 54 39 39 56 59 60 58 56 54 47 50 52 56 55 55 54 57 56
49 49 49 50 50 51 58 63 55 59 63 56 44 42 46 57 49 46 56 51 52 53 54 47 46 53 48 39 52 57 59 57 55 52 51 54 57 56 55 56 56 53 53 54
49 49 49 53 51 50 57 49 54 64 59 48 38 38 37 55 46 45 45 48 40 49 40 42 47 41 38 48 54 54 54 53 52 55 56 55 53 53 53 53 53 51 50 50
48 49 47 39 44 49 50 56 52 48 51 51 39 50 41 53 41 38 39 41 38 36 38 41 34 36 50 53 54 54 54 55 55 50 48 49 48 50 51 50 51 50 48 46
45 40 37 44 48 47 45 38 40 41 36 40 44 44 41 48 39 37 39 35 36 34 37 36 36 37 48 53 50 52 54 56 55 54 53 52 51 50 49 48 47 45 45 43
44 44 46 45 41 37 38 34 34 35 36 37 35 38 46 39 43 35 34 33 34 33 43 34 34 47 51 51 51 52 53 53 52 52 51 51 50 50 47 45 44 44 41 36
45 39 35 35 33 31 32 30 33 33 34 34 34 33 35 36 38 33 34 32 33 40 32 35 45 50 51 52 52 51 52 49 46 50 51 50 49 47 42 40 41 36 40 41
36 33 32 33 32 33 34 35 35 36 36 35 34 33 34 34 34 34 32 33 36 30 29 32 45 48 51 51 50 50 48 38 42 45 46 44 40 39 37 35 35 34 35 38
36 36 31 32 34 34 34 35 36 36 39 37 37 37 40 34 32 34 32 28 29 33 35 41 46 48 48 45 45 46 43 36 39 46 43 36 36 36 38 39 38 39 35 34
39 35 32 34 34 33 33 34 33 39 38 38 39 34 33 32 33 30 30 30 30 36 39 44 46 44 45 45 45 45 45 43 44 44 43 41 37 34 39 40 37 34 34 33
34 33 36 35 35 34 34 36 36 41 37 33 35 31 30 32 31 30 37 32 37 39 42 46 44 44 45 46 45 38 41 42 43 43 43 43 41 38 36 35 41 42 40 34

GFSNW_sfc_temp_006.txt.gz
Temp
53 53 53 53 54 54 63 74 64 76 78 66 68 64 69 62 69 73 71 71 69 65 65 63 62 60 62 68 68 60 62 59 49 58 64 67 64 60 59 44 44 46 43 45
51 53 53 53 53 54 74 70 69 76 76 58 60 68 68 71 69 70 69 66 69 70 64 57 63 60 65 66 64 58 61 56 47 52 58 63 59 61 60 55 47 42 37 44
51 53 53 54 53 54 69 73 60 69 71 72 67 64 64 63 71 68 71 68 69 66 62 66 60 58 62 65 62 53 57 59 52 45 52 59 54 58 60 57 42 43 45 51
51 51 53 53 53 54 69 74 66 71 59 64 69 69 68 64 61 70 71 66 67 64 56 60 59 62 60 63 55 61 61 51 55 56 58 58 56 56 57 55 55 44 49 53
50 52 53 53 53 51 71 68 68 71 69 69 68 60 65 65 67 66 65 64 67 67 59 61 58 62 62 60 62 61 61 48 48 47 57 56 51 55 56 57 57 56 55 54
52 54 53 53 53 56 76 75 75 73 58 67 64 63 66 67 67 66 72 70 66 57 63 65 66 66 65 64 60 57 54 49 44 40 47 45 38 48 56 57 59 56 47 56
55 54 53 52 52 53 72 74 76 62 56 64 65 67 70 68 66 64 70 71 60 65 71 67 65 63 62 63 60 62 48 46 41 37 37 33 53 62 61 56 59 60 60 59
54 53 53 52 53 53 73 74 72 63 41 64 67 67 68 68 67 66 63 66 69 71 67 53 45 44 40 48 58 58 59 47 36 35 38 45 51 56 53 50 49 60 57 56
53 53 52 52 52 53 71 67 67 70 49 59 71 67 67 61 60 59 59 67 71 69 55 45 36 41 49 46 49 56 54 50 43 35 32 31 49 59 61 59 41 57 55 52
53 53 52 52 52 53 63 67 67 68 60 69 69 65 62 68 63 58 59 59 57 66 44 37 42 45 55 44 39 36 37 39 36 36 34 40 56 60 60 40 42 54 53 52
54 53 52 52 52 52 60 67 68 66 60 65 69 71 69 68 66 53 61 57 57 51 38 40 44 39 46 47 53 42 38 36 34 38 33 32 60 58 44 52 55 55 54 53
53 53 52 52 52 52 54 70 70 69 66 63 68 67 69 68 69 67 63 62 59 57 49 46 46 38 38 41 42 60 45 49 45 45 43 57 61 56 58 54 54 51 51 53
51 52 52 52 53 53 54 69 69 71 60 63 64 64 68 73 70 73 59 61 67 63 65 49 43 34 46 35 43 48 58 62 48 49 56 58 59 60 56 57 55 55 55 53
51 51 51 53 53 53 53 69 69 69 57 39 58 69 66 70 72 73 72 68 66 64 58 41 38 36 56 43 49 49 55 58 53 51 57 59 59 55 56 54 55 54 55 56
49 50 50 50 54 53 60 70 69 69 63 46 56 65 67 69 70 69 69 66 62 57 45 37 39 51 51 50 47 46 56 53 47 44 56 54 53 54 55 53 53 55 55 54
48 49 50 50 51 51 66 62 68 69 69 51 43 62 62 65 67 67 66 65 64 61 51 43 53 60 52 38 39 54 60 63 61 56 58 55 54 56 56 55 56 56 54 55
48 49 50 49 50 62 59 57 57 54 65 50 43 49 58 61 64 63 63 64 62 60 55 48 48 52 54 38 38 54 60 61 61 59 56 52 53 51 56 56 56 54 56 56
49 49 49 50 50 52 58 60 56 56 63 55 44 42 47 58 50 47 55 49 51 53 53 49 46 53 47 40 51 56 59 60 57 55 55 55 57 56 56 56 56 53 52 52
49 49 49 56 55 55 59 50 52 64 59 49 37 37 37 56 44 44 45 49 39 51 40 43 46 41 38 47 53 56 59 55 54 55 56 56 54 54 54 53 52 50 49 49
48 50 47 39 45 49 51 57 54 51 54 51 39 51 41 51 41 39 39 39 38 36 39 41 35 38 51 56 58 58 55 56 56 50 47 51 49 50 50 50 50 49 46 44
46 40 37 44 48 51 47 40 41 42 39 43 43 46 41 49 39 36 40 35 36 34 38 37 35 35 46 53 55 55 55 56 56 56 54 53 51 49 48 46 44 41 41 40
44 44 46 44 41 37 37 35 35 36 39 39 36 40 45 41 49 40 35 34 33 32 40 33 33 45 53 52 51 53 55 54 53 54 52 51 50 49 45 42 41 40 37 34
44 39 35 36 33 31 32 31 33 33 34 35 35 34 36 37 39 34 33 32 32 36 33 33 40 47 51 51 51 52 51 46 47 51 51 49 47 44 39 37 38 35 37 38
36 33 32 32 32 33 33 33 33 34 34 34 35 33 34 33 33 33 32 33 34 31 30 32 40 47 50 51 50 50 45 36 40 41 43 40 38 37 35 33 33 32 34 36
36 35 31 32 33 34 33 33 34 34 36 35 34 34 35 33 32 33 32 29 29 31 32 35 40 42 44 42 45 42 39 34 36 42 39 34 34 35 36 36 36 37 33 33
40 36 33 34 33 33 33 33 33 37 35 37 37 33 32 32 33 30 30 30 29 33 37 40 41 40 41 41 42 42 42 40 40 40 40 38 35 33 37 38 35 34 33 33
34 33 37 35 35 34 34 35 36 40 35 33 34 32 29 33 31 30 33 31 34 37 40 40 40 40 41 43 42 36 38 39 40 40 40 40 38 35 35 35 38 38 37 33

GFSNW_sfc_temp_009.txt.gz
Temp
51 53 54 54 54 55 59 57 50 64 64 52 51 49 61 60 64 67 65 63 63 59 59 56 55 52 56 61 59 54 54 48 36 49 58 60 56 52 50 31 35 32 30 34
50 53 53 53 53 55 59 56 55 64 62 42 40 58 63 65 64 63 62 61 62 63 56 50 54 53 58 59 56 50 52 46 33 42 50 56 52 55 53 46 36 34 24 33
51 52 53 53 53 54 60 57 47 54 55 57 55 59 57 58 65 63 65 63 62 59 55 58 51 52 57 57 56 51 53 51 42 33 43 49 45 51 52 45 30 33 34 43
50 52 54 53 53 54 63 60 52 55 44 51 55 58 59 57 56 62 64 59 60 57 48 52 49 53 54 56 53 55 52 41 46 48 51 52 50 49 50 47 46 35 40 45
51 54 53 52 52 51 59 57 55 57 54 58 55 53 57 57 60 60 58 57 60 58 51 51 49 54 52 51 55 52 52 36 37 37 48 48 43 47 47 49 50 48 48 46
54 53 53 52 52 54 58 60 60 57 49 53 49 52 58 59 59 59 63 59 53 47 53 55 55 55 55 55 52 48 45 37 32 31 40 37 30 41 48 49 50 48 38 46
54 53 52 52 52 53 59 58 58 49 42 49 54 61 61 59 60 56 59 58 51 56 60 56 53 52 53 55 53 54 40 36 31 26 28 22 45 54 53 49 50 51 50 48
53 52 52 52 52 53 60 58 58 47 36 51 57 59 59 58 57 54 56 59 60 60 56 39 38 35 36 43 52 50 49 35 26 27 26 36 45 50 47 43 42 50 47 47
52 52 52 53 52 53 60 56 57 54 42 46 63 57 57 48 47 48 52 59 60 57 39 33 30 29 38 37 44 47 46 39 31 28 20 19 39 52 55 52 31 49 48 45
52 52 52 52 52 52 57 56 58 57 46 55 57 52 52 55 50 45 50 50 49 52 35 34 31 32 45 34 32 28 28 28 25 30 19 31 46 54 55 32 34 46 47 45
53 52 52 52 52 52 56 57 59 57 48 53 59 59 56 56 51 41 49 45 44 36 34 31 32 30 34 36 42 35 31 27 29 31 24 23 52 51 39 43 47 47 46 45
52 51 51 52 52 52 53 56 61 61 55 53 58 58 59 59 58 53 51 48 49 45 38 34 36 32 35 32 30 47 35 38 33 35 33 46 52 50 51 49 47 45 47 50
52 51 51 52 52 52 53 57 57 58 49 51 54 54 60 64 62 63 49 48 56 52 50 41 40 32 37 30 33 36 46 51 36 40 47 50 50 51 52 50 48 49 50 50
51 51 50 50 52 52 53 56 57 54 47 36 48 62 57 63 64 64 62 58 56 53 45 38 36 33 45 33 39 36 44 48 45 40 48 49 48 49 49 50 51 50 53 52
48 49 49 49 51 51 54 58 58 58 52 39 41 57 60 63 62 61 60 56 53 46 39 35 34 35 39 33 35 33 49 45 37 35 48 46 44 48 52 50 51 52 50 48
48 49 50 50 49 50 55 51 56 55 56 44 37 52 53 57 59 57 57 56 53 49 40 35 42 51 42 34 32 46 53 55 55 47 50 48 48 51 52 50 50 50 49 49
48 49 50 50 50 53 50 49 52 50 54 41 37 38 49 53 54 50 51 53 50 48 41 36 36 40 45 33 34 47 53 55 53 51 50 45 48 47 51 51 50 51 51 48
48 49 50 51 50 50 51 53 51 50 51 45 38 38 38 51 38 39 46 40 44 45 43 41 38 40 35 32 44 49 53 54 50 50 51 51 51 51 53 52 49 46 44 43
49 50 50 53 50 46 49 49 50 55 50 38 34 35 34 46 40 39 39 43 36 43 36 38 41 36 36 41 45 48 51 50 47 50 52 52 50 50 48 46 45 42 40 39
49 51 47 39 43 48 49 51 44 41 41 41 36 40 37 43 36 35 36 35 34 34 36 40 34 37 43 49 50 50 50 51 52 46 44 46 46 44 43 43 42 41 39 38
46 40 37 44 48 48 42 38 36 38 36 39 39 39 37 42 35 34 35 33 34 32 32 34 32 33 38 46 47 49 51 52 51 50 48 48 46 43 41 39 37 36 35 35
44 44 45 44 40 37 36 35 34 35 35 36 35 37 39 37 43 35 34 34 33 30 36 32 30 34 44 45 45 48 49 49 48 48 46 45 44 41 38 37 36 35 34 28
43 39 35 38 32 32 32 30 32 32 33 34 34 33 34 36 37 33 33 32 31 34 32 30 30 43 45 46 43 43 44 41 42 44 43 42 41 40 36 33 34 28 32 33
35 34 31 32 31 31 31 31 32 32 33 33 33 32 33 32 33 32 31 31 32 28 26 23 34 38 41 44 42 41 38 35 36 38 39 36 34 32 30 29 29 24 29 32
34 34 30 30 32 32 32 32 32 33 35 34 33 33 34 32 30 31 30 27 27 28 28 31 33 36 39 37 38 37 35 32 34 37 35 31 29 30 32 32 31 32 28 29
34 34 31 32 32 32 32 32 32 35 33 34 34 32 32 30 30 28 28 28 26 30 32 33 35 36 37 37 37 36 37 36 36 36 36 34 29 27 33 33 30 28 30 30
34 31 34 33 33 33 33 33 34 37 34 32 32 30 27 30 28 28 30 28 31 33 32 33 36 36 36 37 37 34 35 36 35 35 35 35 34 29 28 30 34 33 33 30

GFSNW_sfc_temp_012.txt.gz
Temp
52 53 54 53 54 54 57 54 48 61 61 50 45 46 57 59 61 65 62 59 57 56 54 51 49 49 52 56 55 50 51 44 34 46 55 56 52 48 45 30 35 29 29 33
51 53 53 53 54 55 56 52 52 60 59 39 37 52 59 61 59 59 59 57 58 58 53 46 50 50 54 55 53 48 50 43 32 40 47 52 49 50 48 41 34 34 24 31
50 52 53 53 54 55 56 53 44 51 52 50 51 51 54 55 61 60 61 59 60 56 52 53 48 49 54 55 53 50 51 46 40 34 40 45 42 47 46 42 29 32 32 40
50 53 53 52 53 55 57 54 49 52 43 47 50 54 56 54 53 59 60 57 57 54 45 48 46 50 51 54 52 52 49 39 42 44 46 47 45 44 44 43 41 34 39 40
52 53 52 52 52 55 56 54 53 51 48 54 52 51 53 54 56 57 54 53 55 54 47 49 46 50 48 48 50 48 48 36 37 37 44 43 40 44 43 44 46 45 44 40
54 52 52 52 52 55 59 60 56 54 45 48 47 49 54 56 57 56 59 54 49 45 50 50 50 51 52 52 49 45 42 35 31 30 36 36 30 40 45 46 47 45 37 42
53 52 51 51 52 55 61 59 55 48 41 46 50 56 58 55 56 52 55 54 49 54 56 53 52 50 50 51 49 50 37 33 28 25 27 21 42 50 50 46 46 45 44 44
52 51 51 51 52 52 57 54 55 47 35 47 53 56 52 53 52 51 52 54 55 56 51 38 38 34 37 40 46 45 45 32 27 23 25 34 43 48 46 43 41 46 44 44
51 51 51 52 52 53 55 53 55 51 41 44 56 51 52 45 44 46 50 56 56 50 35 32 29 28 35 34 41 45 42 35 29 27 20 19 37 48 52 49 32 46 46 43
51 51 51 52 52 52 56 54 56 55 45 51 53 49 50 50 46 43 46 48 47 48 29 32 29 31 41 32 31 28 28 25 24 19 17 29 42 49 51 32 35 45 45 43
51 51 51 51 51 52 57 54 56 56 46 50 54 55 53 51 47 41 47 45 42 36 32 28 32 31 33 33 39 34 31 27 25 24 18 24 47 48 39 42 43 45 44 44
50 50 51 51 51 52 54 54 57 57 52 52 56 56 57 56 56 50 47 47 45 43 36 35 36 32 34 31 30 43 36 37 32 35 34 45 48 48 48 47 45 44 43 45
50 50 49 50 51 52 55 54 54 54 44 49 52 52 59 62 59 59 48 44 52 48 45 38 34 29 33 30 32 36 44 47 35 38 45 46 48 47 48 47 46 46 46 46
49 48 48 48 49 51 54 54 54 50 43 35 46 58 56 62 61 61 59 56 51 47 42 36 36 30 41 31 37 34 41 45 43 37 44 44 46 46 47 47 47 48 50 51
48 49 49 50 49 50 54 54 52 54 50 39 39 53 58 60 59 58 56 54 50 43 37 33 34 32 36 32 32 32 45 44 36 37 46 45 44 46 48 47 47 51 49 45
48 49 50 50 50 50 54 49 53 52 53 43 37 47 49 54 57 56 53 52 49 45 39 35 38 46 39 34 35 42 48 51 51 45 49 48 47 47 50 48 48 48 46 44
49 50 49 50 49 51 50 48 51 50 51 40 37 36 46 50 50 46 47 48 47 46 39 36 36 38 42 34 33 44 49 52 52 50 48 43 46 44 49 49 49 47 45 43
48 50 50 51 49 51 50 50 49 50 48 42 35 34 37 48 37 38 43 39 43 42 41 39 37 38 34 34 41 47 51 52 49 48 48 47 48 49 49 49 47 43 41 40
49 49 51 50 48 45 49 48 48 52 48 38 33 35 34 43 39 37 36 40 34 40 36 36 39 35 36 42 44 46 47 47 46 47 48 48 48 48 47 45 43 40 38 38
49 49 44 40 43 48 48 47 41 41 42 39 34 38 36 42 35 34 34 34 34 34 36 39 34 35 41 43 47 48 48 49 48 42 41 42 42 41 41 41 41 39 38 37
47 41 38 44 48 46 41 37 35 37 35 38 37 38 37 38 35 34 34 33 33 32 32 35 31 33 37 43 44 46 47 47 47 47 45 43 41 39 39 37 36 36 36 35
45 44 45 44 41 37 36 34 34 34 34 35 35 36 39 36 39 35 34 33 33 30 36 32 30 35 40 41 42 43 44 44 42 42 40 40 41 41 37 36 36 35 33 27
44 40 36 39 33 33 34 33 32 32 33 34 34 34 34 36 37 33 33 32 31 33 31 30 32 40 41 41 41 40 41 39 38 40 41 41 40 39 37 34 35 28 31 33
36 34 31 32 30 30 30 31 32 32 32 33 33 32 33 32 33 32 31 31 31 29 26 24 33 36 38 39 39 39 38 35 36 36 37 36 33 32 29 27 26 25 27 31
34 32 29 29 31 32 32 32 32 33 34 33 33 32 34 32 30 31 29 27 26 28 27 30 32 36 36 36 37 36 34 32 34 35 34 30 29 29 31 30 29 30 25 24
35 33 30 32 32 32 32 32 32 34 33 33 33 31 31 29 29 27 27 27 25 29 31 32 34 35 35 35 36 36 36 36 36 35 35 33 27 25 32 32 28 26 24 27
32 31 33 32 32 32 32 33 33 36 33 31 31 26 26 29 27 27 30 27 30 32 33 32 34 35 36 36 36 33 35 35 34 34 34 34 33 28 27 29 34 32 32 28

GFSNW_sfc_temp_015.txt.gz
Temp
54 54 54 54 54 54 56 52 47 58 58 49 42 44 53 56 58 62 59 57 55 52 51 48 47 47 49 53 52 48 48 42 34 43 52 53 49 45 43 30 34 28 27 32
53 53 53 53 53 56 54 50 50 58 57 38 35 49 56 57 56 57 56 54 55 54 49 45 47 48 52 53 51 47 48 41 32 39 45 49 45 47 43 39 33 32 23 31
51 52 53 53 53 54 56 50 43 49 50 47 49 48 51 52 58 57 58 55 56 53 49 49 45 46 51 52 51 50 50 43 38 33 38 43 40 44 43 40 29 31 31 36
50 52 53 53 53 54 56 51 47 50 42 45 48 52 52 51 51 56 57 54 54 51 43 45 43 47 48 51 51 49 47 39 40 41 42 43 42 43 42 40 39 34 37 38
51 53 52 52 53 54 54 51 48 47 45 51 49 47 51 52 53 54 52 52 51 51 47 49 45 48 46 45 49 45 45 34 36 35 41 40 38 42 41 41 42 41 41 40
53 52 52 51 53 57 53 53 52 52 43 45 45 46 52 53 55 53 55 52 48 44 47 49 48 48 49 50 47 42 40 34 32 29 34 35 30 38 42 43 44 43 36 42
53 52 51 51 54 55 58 54 52 46 38 43 48 53 54 53 54 51 51 52 48 52 53 51 51 48 47 47 45 47 36 31 26 24 27 22 41 45 47 44 44 43 41 42
52 51 51 51 52 54 60 55 53 46 34 45 49 51 50 50 50 48 49 51 53 54 48 38 38 34 37 39 43 42 42 31 26 23 25 34 42 45 42 41 40 44 42 42
51 51 51 51 52 54 58 54 51 49 43 45 53 49 50 44 42 44 47 52 52 48 33 32 29 29 35 34 38 42 39 34 29 25 20 20 37 44 49 47 33 44 44 41
51 51 51 51 51 55 57 53 53 52 44 49 52 47 48 48 44 41 45 48 45 46 28 24 26 31 39 31 30 27 27 24 23 15 18 29 41 48 49 34 35 43 44 43
50 50 51 51 51 52 56 53 53 54 44 48 52 53 49 48 47 40 46 44 41 34 32 28 28 27 32 32 37 34 31 28 24 25 19 26 46 45 39 42 41 45 43 44
51 50 50 51 51 51 55 54 54 54 51 50 53 54 54 53 55 48 45 47 44 42 34 30 33 31 33 30 29 40 33 36 32 34 34 44 46 45 47 46 45 43 43 44
47 47 48 49 50 52 55 53 52 51 44 48 51 50 57 60 57 57 47 42 49 45 43 38 32 29 31 29 31 33 41 44 34 37 44 44 45 47 47 46 45 44 45 45
48 48 48 49 50 52 54 52 51 49 42 36 45 55 54 60 59 58 56 52 48 45 41 34 33 29 39 31 36 34 40 42 40 36 42 43 46 47 47 46 45 46 47 48
49 49 50 50 51 53 54 51 50 52 50 38 38 51 55 56 57 55 54 52 48 42 36 33 33 31 34 33 32 32 43 43 34 37 45 44 45 47 46 44 45 47 47 45
49 49 49 49 51 53 53 48 52 51 50 42 36 45 48 51 52 52 52 50 46 43 39 34 36 42 37 34 35 42 47 49 49 47 47 46 46 45 47 46 47 47 44 43
49 49 50 49 51 51 49 47 48 48 49 40 37 35 45 47 48 44 46 46 45 44 39 35 36 37 40 34 33 45 47 49 49 49 46 42 43 43 47 47 45 46 45 43
49 49 49 49 50 50 49 49 48 48 46 40 34 33 36 46 37 38 43 39 42 42 40 38 37 36 35 33 41 45 49 50 48 47 48 47 46 46 45 45 45 42 40 39
49 51 50 49 47 46 49 48 48 49 47 36 33 33 33 42 38 37 37 40 34 40 36 36 37 34 34 40 43 44 46 45 46 45 45 45 45 45 44 43 41 38 36 38
50 48 43 40 44 49 49 47 40 40 42 38 33 38 35 42 34 34 34 34 33 33 35 39 34 35 39 41 42 43 45 47 45 41 39 40 40 40 39 38 38 39 38 36
44 43 38 45 48 44 41 37 35 37 36 38 37 36 37 40 35 35 33 33 33 33 31 35 33 31 36 40 39 40 41 43 43 43 42 41 39 36 34 33 36 36 35 35
44 43 44 41 38 36 36 34 34 34 34 34 35 35 39 36 38 36 34 33 33 31 34 33 31 32 36 37 37 38 39 38 38 39 38 39 38 38 36 36 35 35 34 28
45 40 36 40 34 34 34 33 32 32 32 34 34 34 34 36 37 33 33 32 31 33 31 30 31 36 39 38 38 37 39 38 37 38 39 38 37 36 35 33 34 30 32 33
36 34 32 32 30 30 31 31 32 32 33 33 33 33 33 33 33 32 31 32 31 29 25 24 31 34 35 36 37 37 36 33 34 34 35 34 32 31 30 29 28 26 28 31
34 33 27 26 31 32 32 32 33 33 34 33 33 33 33 32 31 31 29 25 25 26 23 30 32 33 33 33 33 33 33 31 33 35 34 30 29 29 32 31 30 30 25 23
35 33 31 32 32 32 32 32 32 34 33 33 33 31 30 28 29 27 27 23 19 24 29 33 34 34 34 33 34 34 36 35 34 34 34 33 28 27 33 31 28 24 23 23
34 31 33 33 32 32 32 33 33 36 33 31 31 24 24 29 26 26 30 26 29 32 32 33 34 33 33 34 35 33 34 35 34 34 34 34 33 27 27 28 34 32 31 25

GFSNW_sfc_temp_018.txt.gz
Temp
54 54 54 54 53 53 53 50 46 56 56 47 41 44 50 54 56 57 56 55 52 50 48 46 45 46 47 50 50 47 46 41 34 41 48 49 46 42 41 30 32 27 27 31
54 53 53 53 53 55 53 48 49 56 56 38 34 47 52 55 54 54 54 52 53 52 47 43 45 46 50 50 48 47 48 40 32 38 44 47 43 43 41 37 33 32 23 31
52 53 53 53 53 55 54 50 43 48 48 45 47 48 48 50 55 54 56 53 53 50 46 47 44 44 49 50 49 49 49 41 38 34 37 40 39 42 41 39 28 31 30 35
51 51 53 53 53 54 54 48 45 48 41 43 45 49 50 49 49 54 55 52 51 49 42 42 41 45 46 50 49 47 46 38 38 38 39 40 40 41 40 39 38 34 36 36
49 52 53 52 52 53 52 48 46 45 43 47 48 45 49 50 50 51 49 50 48 48 46 48 43 46 45 45 46 43 43 34 36 35 38 38 37 41 40 39 39 38 38 38
50 53 52 52 53 55 51 49 50 50 40 42 43 43 50 52 52 50 52 52 47 43 46 47 46 47 47 47 45 40 38 34 32 29 32 33 30 38 40 39 40 41 35 43
53 52 52 51 53 55 55 52 51 45 35 40 45 50 51 51 51 50 49 50 47 48 50 49 49 47 45 45 43 44 35 32 26 24 26 21 40 43 42 42 43 43 41 41
52 51 51 51 52 53 54 52 52 44 31 41 46 48 47 48 48 46 47 48 49 51 47 38 38 34 37 38 40 39 40 30 24 23 24 34 42 43 41 40 41 44 42 40
50 50 50 51 52 53 54 52 50 49 41 42 52 48 47 43 41 42 45 50 50 47 32 32 29 30 36 34 36 40 37 34 29 19 20 20 38 42 46 45 33 44 44 40
50 50 50 51 53 54 57 51 52 51 43 47 50 46 46 47 43 40 44 46 43 45 28 24 26 30 37 32 30 27 27 25 23 14 18 29 41 46 47 33 36 41 43 41
50 50 50 51 53 54 59 52 53 52 43 47 51 52 48 46 45 40 45 43 41 33 32 29 28 24 31 32 36 32 31 28 22 23 16 26 44 45 39 42 41 43 42 42
48 47 48 50 52 54 57 56 54 52 49 49 52 53 52 52 53 46 43 47 43 42 33 27 27 30 29 30 29 37 32 36 31 33 33 43 44 43 45 45 45 43 43 44
48 48 49 50 51 53 55 53 50 49 44 47 49 49 55 57 55 55 46 41 48 44 42 33 29 28 30 28 29 32 38 41 33 37 43 42 43 46 46 46 45 45 45 44
48 49 49 51 52 53 54 51 49 48 42 36 45 53 52 57 56 55 54 49 46 43 40 32 32 29 37 29 34 33 39 41 38 35 41 41 45 45 47 47 45 45 46 46
49 49 50 52 53 53 54 50 49 49 50 38 38 49 52 53 54 52 52 51 46 41 35 33 33 30 34 33 32 31 41 41 34 35 45 45 45 48 46 45 45 46 45 43
48 49 49 50 52 52 52 48 50 50 48 42 37 44 46 49 50 50 49 48 45 42 39 33 36 40 36 33 32 41 45 46 46 46 45 45 46 45 45 45 43 44 42 41
49 49 49 51 52 51 48 46 47 48 47 40 36 35 43 45 46 43 44 45 43 43 39 34 35 36 38 31 29 46 47 47 48 47 44 43 43 44 44 45 43 43 43 43
49 49 49 50 50 49 48 48 48 48 44 40 33 32 36 44 37 38 42 38 41 41 39 37 34 37 35 34 39 43 45 46 46 46 46 45 44 43 41 43 43 40 39 39
50 49 50 50 47 47 47 48 48 48 46 35 32 33 32 42 38 37 37 39 34 40 36 35 39 34 34 36 36 39 41 41 43 44 44 43 41 40 40 41 40 37 35 35
49 48 44 39 44 49 48 46 41 40 38 39 34 38 35 43 34 34 34 34 34 34 34 39 34 34 38 36 36 37 38 40 42 38 36 37 35 36 37 37 38 37 36 35
45 39 38 45 47 44 38 34 35 38 35 38 36 36 36 40 36 35 33 34 33 33 34 34 32 32 33 35 35 36 37 38 38 38 38 39 38 36 36 35 34 34 34 34
44 43 44 41 38 36 35 33 34 34 34 34 35 35 39 35 36 36 34 32 32 30 35 32 29 31 35 35 36 37 39 39 38 39 38 38 38 38 36 35 34 34 32 29
43 39 35 39 34 34 28 31 32 32 32 33 33 34 33 35 36 33 33 32 31 33 31 30 31 35 36 36 36 35 37 36 37 38 39 38 36 35 33 31 32 29 31 33
37 34 33 32 31 30 30 31 32 32 32 33 33 32 33 32 33 32 32 32 31 29 26 25 31 33 34 34 35 36 34 32 33 34 34 32 31 31 30 29 28 27 29 30
34 34 29 28 30 32 32 32 32 32 34 33 33 33 34 32 31 31 30 23 19 22 20 29 32 33 33 33 34 33 32 29 32 34 33 29 28 29 31 31 30 31 28 27
34 33 30 31 31 31 32 32 32 34 34 33 33 32 29 28 29 26 24 22 17 20 29 32 33 32 32 33 34 34 35 34 34 34 34 33 27 26 32 30 28 23 22 24
33 31 33 32 32 32 32 33 33 36 33 31 31 23 25 29 25 24 28 24 27 31 32 33 33 33 33 33 33 32 34 34 34 34 33 33 31 25 26 28 32 30 30 23

GFSNW_sfc_temp_021.txt.gz
Temp
55 55 54 54 53 53 52 50 47 57 56 49 44 46 51 54 57 60 58 58 55 52 51 50 49 50 53 54 55 53 53 47 43 49 55 56 54 50 48 41 38 36 37 44
55 54 54 53 53 54 51 49 51 57 56 41 39 49 54 57 56 56 57 55 56 55 50 47 49 50 53 54 55 51 52 46 40 45 51 54 51 50 46 43 41 38 36 45
54 54 53 53 53 55 55 50 45 50 49 48 49 49 51 53 57 56 57 54 55 52 50 50 46 49 53 53 53 48 52 46 45 42 46 48 46 46 46 47 39 39 41 46
54 53 53 53 53 54 53 50 47 50 43 45 48 52 52 52 51 57 57 54 55 51 46 47 45 50 51 53 50 51 51 45 45 43 44 46 47 46 45 46 45 43 45 44
53 53 52 52 52 53 52 49 47 46 45 48 49 47 50 51 53 54 53 52 52 53 48 51 46 49 49 50 51 49 47 42 43 41 42 42 43 46 46 45 45 46 45 45
51 51 52 52 52 55 52 51 51 51 41 45 45 45 49 52 54 52 54 54 51 49 52 52 50 50 49 51 49 44 44 40 39 36 37 39 35 43 46 45 47 49 43 52
50 51 52 51 53 54 55 53 51 46 37 42 46 49 52 52 53 51 52 53 51 51 53 53 53 50 48 48 45 47 40 38 34 34 32 32 47 49 49 47 48 49 49 50
51 51 51 51 53 54 55 53 53 46 34 43 46 49 48 49 49 48 50 50 51 53 51 43 42 39 39 41 43 42 44 37 30 33 34 40 48 46 45 44 49 51 50 50
51 51 51 51 53 54 55 53 52 50 41 42 52 48 49 45 44 45 46 51 52 49 39 38 35 36 41 40 41 43 41 39 38 30 32 31 44 49 51 52 41 52 50 46
50 50 50 51 52 54 56 53 53 52 45 50 51 48 48 48 46 43 45 48 48 49 36 34 36 38 41 39 34 31 33 32 33 26 33 37 46 50 52 41 44 48 49 48
50 50 50 51 52 54 56 53 54 55 46 49 53 53 49 48 48 44 46 47 45 39 37 36 35 35 38 38 41 37 37 33 31 28 30 32 48 50 44 50 50 50 49 49
48 49 50 52 53 53 55 54 54 53 51 50 53 55 55 55 55 49 46 50 46 46 39 35 33 33 32 34 36 41 37 41 39 39 41 48 50 50 53 50 51 52 50 51
48 49 50 53 54 54 57 54 52 51 46 50 51 51 56 57 55 57 48 44 50 47 46 38 36 35 36 33 35 39 42 44 41 41 47 45 48 52 51 53 52 53 52 53
49 50 50 51 53 53 57 54 51 50 45 37 46 54 52 56 56 57 55 50 47 45 44 36 35 35 40 35 39 39 43 43 41 40 45 48 50 50 53 53 51 51 52 51
50 51 51 52 52 53 54 52 51 50 52 39 41 50 52 53 53 52 52 51 48 44 39 35 37 36 37 35 36 36 44 44 41 42 51 50 51 54 53 51 51 51 50 46
48 50 51 53 52 51 53 51 51 50 48 44 38 45 46 49 51 50 48 49 46 46 43 37 40 42 41 34 35 46 47 49 50 50 50 50 51 52 53 51 50 48 47 46
49 50 51 51 51 52 49 48 49 48 48 41 36 37 44 45 47 45 46 48 45 46 40 36 37 39 40 34 36 43 44 47 48 50 49 48 49 49 48 45 44 44 43 43
49 50 50 50 50 50 49 49 48 48 46 42 35 34 38 45 40 39 43 40 43 42 40 38 36 39 38 35 39 40 41 42 48 46 48 47 45 44 43 44 44 40 38 38
50 49 49 50 48 46 47 48 48 48 47 36 33 35 35 44 38 37 39 41 36 41 36 37 41 35 33 33 35 35 36 36 38 43 42 42 40 41 41 40 38 35 34 34
49 49 46 39 45 48 49 46 42 41 39 41 33 38 35 43 36 35 35 35 35 35 37 40 35 34 35 35 36 37 37 38 41 40 34 36 36 36 36 35 36 35 34 34
46 41 40 45 47 46 39 35 36 37 34 37 36 38 37 41 37 35 35 35 34 34 36 35 33 31 33 36 36 38 39 39 39 39 38 37 37 35 34 34 35 36 36 36
45 44 45 43 41 37 36 33 34 35 34 35 35 35 39 36 40 37 35 33 33 33 37 33 30 31 35 35 35 37 39 39 39 39 38 38 38 39 38 37 36 35 35 32
44 40 36 39 35 33 29 32 33 32 33 34 34 34 34 37 36 34 35 33 32 35 32 30 30 34 35 35 35 35 38 38 39 39 39 37 36 35 34 33 34 32 33 34
35 34 32 30 32 31 32 32 33 32 33 33 34 33 34 33 33 33 33 31 32 30 28 27 32 33 33 35 36 36 35 33 35 36 36 35 33 33 32 30 30 29 32 33
33 34 28 28 31 32 32 32 33 33 34 33 33 33 35 32 32 32 31 27 26 27 26 30 32 33 34 33 35 35 34 29 33 36 34 28 29 30 32 32 32 32 28 28
33 32 30 32 31 31 32 32 32 35 33 33 34 32 31 30 31 29 28 26 23 26 31 32 33 33 33 34 35 36 36 35 35 35 35 33 30 29 32 32 31 29 29 28
32 31 33 32 32 32 32 33 32 35 33 32 32 29 27 30 28 27 30 27 29 32 32 33 33 33 34 35 35 33 34 34 34 33 32 31 31 28 29 28 30 29 30 26

GFSNW_sfc_temp_024.txt.gz
Temp
53 54 55 54 54 53 54 63 57 65 68 60 63 59 64 59 66 67 67 68 65 63 62 60 61 60 62 64 66 62 63 61 52 57 62 64 63 61 60 51 47 49 47 54
52 54 54 54 53 54 60 60 62 65 65 54 54 61 64 65 65 66 66 64 66 65 61 57 60 60 60 61 63 62 62 58 49 51 58 61 59 61 60 56 54 48 43 55
51 53 54 53 53 55 66 64 54 59 63 65 62 60 61 61 65 65 66 63 65 62 59 60 56 58 58 60 61 49 58 58 56 51 55 60 54 56 59 59 49 52 52 59
50 53 54 53 53 54 62 64 61 65 53 56 62 64 64 62 60 66 67 63 65 63 55 57 56 59 58 59 52 59 61 55 55 55 55 55 56 57 57 56 58 50 58 57
49 53 53 53 53 54 61 61 60 61 62 62 61 56 61 63 62 64 63 63 63 64 60 63 57 60 60 60 59 59 58 53 52 49 52 52 51 57 59 59 59 58 60 58
52 53 53 52 52 56 65 66 65 68 50 59 59 59 63 64 65 60 65 67 63 60 60 62 64 63 63 63 60 56 55 52 49 46 47 48 40 52 58 59 60 59 53 62
53 53 52 52 52 54 73 69 70 62 51 56 59 62 64 63 66 61 60 65 63 58 65 66 64 62 60 60 56 58 51 51 46 43 38 35 57 59 59 59 61 64 62 66
52 52 51 51 52 54 67 68 69 62 41 58 59 61 63 61 61 58 60 58 62 65 62 56 51 49 46 50 53 54 56 51 39 38 44 51 59 56 54 52 57 65 63 65
50 51 51 51 52 54 65 67 68 68 52 53 64 61 61 59 59 56 53 58 62 60 56 51 45 44 51 47 49 52 52 52 49 39 37 35 54 56 59 59 50 62 61 61
51 51 51 51 52 54 63 64 63 70 59 62 63 61 59 63 61 58 54 55 55 58 50 44 46 48 52 47 42 37 42 41 39 41 38 48 58 58 59 46 51 61 60 61
51 50 50 51 52 54 62 62 63 69 59 60 62 63 60 59 63 56 56 57 55 52 46 46 48 43 49 49 52 47 46 42 39 39 36 36 58 57 51 59 62 61 62 63
50 50 50 51 52 54 58 62 62 66 65 60 63 62 63 64 68 63 60 61 59 61 53 48 45 39 37 47 46 51 46 52 51 51 52 58 60 62 64 61 60 62 61 64
49 49 50 51 53 54 58 63 61 65 59 60 63 60 63 66 64 67 61 59 63 59 59 54 49 38 50 38 48 49 53 54 50 49 59 59 60 62 64 65 63 64 65 64
49 50 51 52 54 54 59 64 61 63 59 43 55 63 60 63 65 65 64 63 59 58 61 49 42 43 52 48 52 51 55 53 52 50 57 60 62 63 63 63 64 63 64 63
49 50 52 53 54 53 60 59 56 61 62 48 53 59 59 61 63 62 63 62 61 59 51 43 47 50 49 45 47 48 55 54 49 50 57 57 59 62 62 60 60 60 58 59
51 52 52 53 53 55 66 60 58 59 63 57 47 56 55 59 61 60 58 60 60 61 57 47 52 50 52 39 47 50 52 54 54 52 57 57 59 60 58 56 54 54 53 53
51 52 51 51 52 60 61 57 56 52 58 55 45 49 54 54 57 52 56 57 56 59 50 42 47 49 54 40 46 45 48 50 52 54 54 55 53 50 52 51 50 49 48 46
51 51 51 51 51 52 58 56 51 52 60 58 43 43 49 54 47 44 49 47 52 48 43 43 42 44 45 42 42 44 46 48 52 49 52 51 51 51 50 50 46 40 37 36
49 50 51 58 54 55 58 49 49 59 60 50 38 42 40 50 43 43 45 49 39 47 42 43 47 39 37 35 37 38 40 41 44 46 49 49 46 41 39 38 37 35 35 36
50 57 56 48 50 48 52 57 54 52 49 48 37 45 40 49 42 39 42 41 38 37 41 43 40 32 36 36 37 39 40 45 48 42 36 36 35 35 36 36 38 40 42 43
54 49 46 53 50 57 50 43 43 47 38 42 41 45 41 45 41 38 40 38 38 36 41 39 36 31 34 37 38 40 41 40 39 39 38 39 40 38 38 41 42 42 40 40
51 51 51 53 50 47 38 36 38 39 37 38 39 39 42 40 45 41 39 36 36 35 43 36 33 32 35 36 37 40 42 43 43 45 44 44 44 44 42 41 40 40 38 34
54 49 40 46 38 35 36 33 35 35 35 36 36 35 39 41 43 37 38 35 35 41 35 33 33 33 35 36 41 42 44 43 43 43 44 43 42 41 39 37 39 35 39 40
42 38 34 35 34 33 34 35 35 34 34 36 38 36 39 37 35 36 35 33 33 32 31 31 31 33 35 37 40 42 41 36 40 41 41 38 38 37 35 33 33 33 35 36
37 38 30 31 32 33 33 33 34 34 35 36 36 36 40 35 34 34 33 31 31 33 33 33 33 34 35 36 40 40 39 34 38 41 37 33 34 36 37 36 36 34 32 32
36 34 33 33 33 32 33 33 32 35 34 35 35 34 34 32 34 33 32 31 31 32 34 34 34 34 35 39 40 40 40 40 40 39 38 36 33 33 35 35 33 31 31 29
34 33 33 33 33 32 32 33 33 36 35 33 36 33 30 35 33 31 36 32 35 35 34 35 36 36 36 38 39 36 38 39 38 37 36 35 34 33 32 31 33 33 33 31

GFSNW_sfc_temp_027.txt.gz
Temp
54 54 55 54 54 54 55 61 55 70 73 59 62 59 67 67 72 74 71 71 70 67 67 64 66 65 69 75 73 66 70 66 57 61 69 71 69 66 65 52 52 54 51 55
54 54 54 54 53 55 62 58 62 67 70 53 56 66 68 72 70 70 69 68 71 72 67 61 66 68 65 68 69 68 69 62 52 56 62 67 63 66 66 64 59 52 46 55
53 53 53 53 53 56 65 63 55 58 62 68 64 62 64 64 73 72 73 71 72 68 66 68 64 65 64 66 69 52 61 64 59 52 59 66 59 63 66 62 51 53 56 62
53 52 52 53 53 55 63 63 63 65 54 61 65 66 66 64 63 71 73 69 69 67 61 63 62 67 62 64 54 64 66 57 62 64 63 63 63 63 63 61 62 55 60 63
53 52 51 52 53 56 56 59 66 68 64 65 64 60 63 65 68 68 66 67 70 71 65 66 62 66 65 63 64 64 66 57 58 54 61 60 58 62 64 65 64 64 65 64
51 51 51 51 53 56 58 66 70 69 59 63 61 63 65 67 70 66 73 72 70 67 68 70 71 72 72 70 65 62 61 57 53 48 54 55 43 55 61 64 67 65 57 66
51 50 50 48 54 58 70 66 69 59 55 62 62 67 68 68 70 66 69 74 69 67 73 73 71 69 68 66 64 68 58 57 52 46 41 34 61 67 66 62 66 70 69 70
50 49 50 50 53 54 69 67 67 64 45 64 65 66 67 70 69 68 67 65 71 73 71 60 53 53 50 56 61 61 64 57 45 40 46 55 60 64 60 58 60 69 66 68
50 49 50 51 53 53 59 66 73 71 59 60 70 66 69 64 63 60 58 66 71 68 64 56 50 47 55 51 54 60 58 59 51 45 37 34 56 62 65 65 52 66 67 66
50 50 51 52 53 54 57 68 69 74 65 71 70 65 65 71 68 63 59 59 59 65 55 45 50 51 59 50 46 39 45 45 42 44 40 50 64 64 64 48 52 65 66 66
50 51 51 52 53 53 57 69 71 75 67 68 69 74 69 70 69 59 62 60 60 59 50 50 53 48 54 54 59 51 48 45 40 46 36 37 65 63 53 61 66 67 66 66
50 51 51 51 52 52 55 67 72 78 72 64 70 68 69 73 77 72 64 68 64 65 60 55 54 42 42 53 48 61 50 57 54 55 54 64 67 65 69 68 64 65 65 67
50 50 51 51 51 53 54 70 73 74 65 64 66 64 68 71 71 72 66 67 72 68 69 61 56 41 55 41 52 56 60 62 55 54 63 65 66 68 68 68 67 68 68 67
50 50 50 50 51 53 53 69 73 74 65 48 58 69 64 68 71 71 71 71 68 68 68 55 45 45 62 53 58 57 60 60 58 57 62 65 67 68 66 65 66 66 67 66
49 49 50 51 52 54 62 70 68 71 70 51 55 64 65 69 70 69 70 68 66 64 56 46 51 59 55 54 55 54 62 59 52 51 60 57 61 64 62 62 60 60 60 60
49 49 50 51 53 56 67 62 67 63 73 60 50 62 60 66 69 68 67 68 69 70 62 52 61 58 59 43 50 57 57 57 57 56 59 60 61 59 59 56 55 56 55 55
49 50 51 52 54 66 60 63 61 55 71 57 48 50 59 61 64 62 64 66 65 68 60 51 57 56 59 43 49 52 52 54 57 57 58 57 56 53 56 54 51 47 45 44
51 51 52 53 51 52 61 58 51 58 65 64 47 45 51 60 54 49 59 54 62 54 50 51 49 52 52 47 49 50 51 55 53 54 57 56 56 54 49 48 46 42 39 38
51 52 51 62 62 61 59 48 53 62 60 54 39 42 40 58 50 50 50 57 44 53 43 48 52 42 42 41 44 46 47 48 49 52 52 48 44 42 43 44 42 41 40 43
50 64 63 54 55 50 51 59 58 57 56 53 41 53 45 54 46 43 44 45 42 39 43 50 42 36 38 40 42 45 46 50 49 39 36 38 39 40 43 45 46 48 47 47
62 55 48 54 51 60 55 46 48 53 43 46 44 50 45 51 43 39 43 39 41 37 43 41 38 36 36 39 41 44 44 46 46 45 43 46 45 44 44 44 44 43 42 42
53 55 56 57 56 51 40 37 40 42 40 40 40 41 46 43 51 44 42 37 40 36 48 39 35 33 36 38 40 43 46 47 46 47 46 47 47 47 46 44 42 41 41 35
60 55 43 50 41 37 34 34 35 35 38 37 39 37 43 44 46 39 41 36 37 47 36 37 34 35 36 39 42 44 47 47 47 47 47 46 44 42 41 40 39 38 41 41
46 41 35 36 34 34 34 35 35 34 35 39 41 38 40 40 37 38 34 34 38 33 33 34 32 34 35 41 44 45 43 38 44 44 43 40 41 39 36 34 34 33 36 37
40 41 31 32 33 33 33 34 35 35 38 39 40 40 44 37 36 38 35 32 33 35 34 33 33 35 37 39 43 44 41 36 41 44 38 34 37 39 39 37 37 35 32 32
38 35 32 33 33 32 33 33 33 36 36 37 42 37 36 34 36 33 34 33 33 33 35 35 35 35 36 40 43 43 44 43 43 42 39 37 35 35 38 36 35 32 32 30
35 33 34 34 33 32 33 33 33 36 35 33 36 34 32 37 34 32 36 33 35 35 35 36 35 36 38 42 40 37 41 42 42 41 39 38 37 36 36 34 35 36 35 31

GFSNW_sfc_temp_030.txt.gz
Temp
51 53 55 54 54 54 52 57 48 67 68 52 57 53 61 64 70 76 72 72 70 67 68 65 65 64 69 76 74 65 71 64 54 60 70 73 69 64 63 48 49 52 47 50
51 52 54 54 54 53 52 53 58 65 66 48 51 59 62 67 68 70 69 68 71 72 67 62 66 68 69 71 71 65 69 60 49 55 63 68 63 66 66 64 58 50 42 50
51 52 54 54 54 54 54 56 48 52 56 64 58 56 59 61 72 72 73 70 73 69 66 70 64 66 65 68 70 55 64 63 57 49 57 63 58 62 66 62 46 49 51 58
50 53 54 54 53 53 52 54 55 58 46 54 60 62 62 61 62 71 73 69 69 66 61 64 62 67 63 66 56 64 65 56 60 63 65 63 62 62 64 61 60 51 56 60
51 53 54 54 53 53 49 53 59 63 60 59 59 57 60 62 67 68 66 66 69 69 64 65 62 67 64 62 63 64 66 55 58 55 62 62 57 62 63 63 64 63 63 62
52 53 53 53 52 52 49 61 66 60 56 58 56 58 62 64 69 70 73 70 69 66 69 71 70 71 71 71 63 61 61 55 51 45 55 53 42 54 59 62 65 64 56 64
52 52 52 52 52 52 55 63 65 52 52 58 59 62 66 67 69 66 72 74 69 69 76 74 72 70 69 69 67 69 59 56 50 43 40 35 58 68 66 62 65 68 68 68
51 52 51 51 50 49 55 63 59 53 45 62 63 64 66 69 70 68 70 68 73 75 70 58 53 51 49 56 63 63 65 55 44 38 43 52 58 64 61 59 58 66 64 66
50 50 50 50 51 50 51 55 60 58 54 58 69 65 68 63 62 61 60 70 74 73 63 54 48 45 53 52 54 62 61 60 47 43 37 34 55 63 67 66 48 65 65 63
50 50 50 49 49 51 49 54 58 56 52 68 67 64 64 70 64 59 60 60 61 66 52 42 49 49 61 49 45 38 44 44 39 41 38 47 64 65 66 46 49 64 64 64
50 49 49 49 49 51 49 53 57 55 53 68 73 75 69 69 66 55 61 60 61 58 49 49 52 46 53 54 58 48 44 42 38 44 35 34 66 63 52 59 64 64 64 64
50 49 49 49 50 50 52 50 56 58 55 63 69 68 71 71 74 67 63 65 63 63 58 54 54 41 40 50 46 64 49 55 50 50 48 63 67 64 68 67 63 64 64 65
49 49 49 51 51 52 54 52 55 57 62 63 66 64 68 71 71 72 61 66 71 68 72 60 55 40 54 39 49 55 62 64 55 55 63 65 67 69 69 67 63 65 65 65
49 50 50 51 51 52 53 52 56 62 64 46 56 70 65 70 73 73 72 73 71 69 66 56 43 43 62 51 58 55 60 61 57 57 62 64 65 63 62 62 63 61 62 61
50 50 50 51 52 52 53 55 61 67 68 50 54 64 67 70 71 70 71 70 67 63 55 42 50 58 54 53 54 52 63 59 51 49 58 57 57 58 60 57 56 56 56 54
49 50 50 51 51 51 53 55 68 68 73 57 48 61 63 68 70 68 68 68 68 67 60 52 59 61 57 42 47 58 59 60 59 56 59 59 58 58 55 49 49 50 49 49
49 49 50 51 50 54 53 56 56 52 66 57 45 47 59 66 65 63 64 68 66 66 59 53 55 56 57 42 47 54 55 57 58 58 58 52 56 51 51 48 47 46 46 45
49 50 50 51 51 52 55 56 53 54 66 62 44 40 50 61 54 50 59 57 60 56 52 53 51 51 51 46 51 53 54 55 54 56 57 53 51 49 48 48 47 43 42 42
50 51 51 55 58 57 59 51 52 64 60 51 39 41 38 59 50 48 50 56 43 53 44 50 51 43 42 47 49 49 51 51 50 50 50 48 46 45 45 45 45 42 42 44
51 56 60 46 55 51 52 60 56 55 55 53 42 51 43 51 44 41 43 45 41 39 43 51 41 36 41 44 47 49 49 51 48 41 39 42 42 43 44 45 45 43 42 43
62 56 47 55 51 58 54 43 45 49 43 47 46 51 44 50 42 39 43 39 41 38 42 41 38 37 37 43 44 46 47 50 47 46 46 46 45 44 42 42 43 41 40 37
56 56 56 56 51 47 39 38 40 40 38 40 41 43 46 45 52 44 42 37 40 36 45 38 36 36 39 41 42 45 47 47 46 47 45 46 46 45 44 42 40 38 36 33
59 51 42 45 40 36 36 33 36 34 36 37 39 36 42 43 47 39 40 35 37 46 36 37 35 36 38 41 44 45 47 47 46 46 46 44 41 41 39 36 36 37 37 34
45 38 33 34 33 32 33 34 34 34 34 36 39 38 39 38 36 38 33 34 38 33 32 34 33 35 38 42 44 44 43 38 43 43 41 38 36 35 33 32 32 31 33 33
39 38 31 31 32 33 33 33 34 35 38 38 40 40 42 36 35 37 34 32 32 34 34 33 34 35 38 41 43 40 38 35 40 40 35 34 35 36 35 34 34 32 28 28
36 34 32 33 33 32 33 33 33 35 35 39 42 37 34 33 35 34 34 34 33 32 34 34 35 36 37 40 41 41 42 41 40 38 36 35 34 34 35 34 33 28 28 25
34 32 33 33 32 32 32 33 33 36 35 33 36 33 32 37 34 32 34 32 33 34 34 35 36 36 37 40 39 38 40 41 40 38 38 36 36 35 35 33 34 35 34 26

GFSNW_sfc_temp_033.txt.gz
Temp
51 52 52 54 54 54 52 50 43 58 61 44 46 44 52 55 62 66 63 64 62 59 59 57 56 56 60 67 65 59 55 49 40 50 63 65 61 55 52 35 41 40 33 39
50 52 52 53 54 55 51 47 50 58 60 40 41 49 52 57 58 60 62 61 62 63 58 55 57 56 61 63 62 58 57 49 38 45 54 58 55 58 58 54 44 40 30 38
50 52 52 52 54 54 52 47 42 49 52 55 48 47 50 51 61 61 64 64 63 59 57 59 55 54 60 62 59 52 58 54 46 37 46 55 49 55 57 52 34 38 40 47
49 51 52 52 53 54 52 47 48 51 43 45 50 52 53 52 52 62 65 61 61 58 52 54 55 55 56 59 54 57 56 47 50 53 56 58 58 55 55 52 50 41 46 50
50 51 51 50 52 54 48 45 50 52 51 52 49 50 50 53 57 59 59 58 61 60 55 56 53 57 55 54 54 55 57 45 47 45 55 54 49 54 54 54 54 52 53 51
50 50 51 50 52 53 46 51 52 54 48 49 47 49 54 55 60 61 66 62 59 57 60 61 60 62 60 59 54 51 51 46 39 36 45 46 35 47 52 53 55 53 46 51
50 50 50 49 52 52 50 52 53 46 44 49 49 55 57 57 59 57 64 63 59 61 65 62 60 58 58 60 57 58 48 46 37 32 33 26 47 58 59 55 55 55 55 55
50 50 50 50 53 53 50 52 50 48 35 52 53 55 57 59 61 59 62 62 65 64 60 48 44 39 43 49 56 55 54 42 34 31 30 41 50 54 52 50 48 55 53 55
49 50 51 52 53 54 51 51 50 50 46 48 59 55 58 54 53 50 53 59 60 62 50 39 37 33 43 43 48 54 52 47 36 31 27 24 43 55 59 57 37 54 55 53
48 50 52 51 52 52 50 48 52 48 47 56 57 55 55 60 52 47 49 52 52 56 35 35 34 35 51 38 37 35 33 34 30 26 25 35 54 58 58 37 39 54 55 53
50 50 50 50 51 52 49 47 50 49 48 54 57 63 60 59 54 46 52 49 49 45 38 37 35 32 40 41 47 40 36 32 28 32 30 30 57 55 45 48 52 55 54 53
49 49 49 50 50 51 51 45 52 54 48 50 58 59 59 64 62 54 52 53 52 51 45 40 38 36 35 38 33 51 37 42 37 39 37 50 55 55 56 56 53 52 52 54
49 49 49 50 50 50 50 47 52 51 48 48 52 52 60 66 64 63 50 54 59 56 54 46 41 36 38 32 35 41 50 55 44 46 52 53 55 55 56 55 53 54 52 51
49 49 49 49 50 50 50 47 51 51 48 41 50 64 58 66 65 67 64 63 59 57 52 41 37 36 48 36 44 43 48 51 49 47 52 51 52 52 53 52 52 50 49 48
48 49 49 49 50 50 50 50 52 54 50 44 47 58 62 65 62 63 65 61 57 50 43 35 38 44 43 41 42 41 51 49 39 36 50 48 47 49 50 47 46 48 46 43
48 49 49 50 50 51 51 46 53 54 53 47 39 54 56 60 59 60 60 58 56 53 47 40 46 51 43 34 32 48 50 51 51 48 52 50 46 46 47 44 44 45 43 43
48 49 50 50 50 52 49 47 52 52 52 48 39 41 53 57 55 51 53 56 52 51 47 41 44 45 44 34 33 47 50 51 52 53 52 46 46 41 44 43 43 42 41 40
49 49 50 50 51 53 50 55 52 50 54 50 39 38 44 56 46 41 48 46 47 46 43 42 39 41 36 34 43 48 50 51 48 47 49 46 45 45 43 43 42 39 39 39
49 50 50 52 52 49 52 52 50 54 52 39 35 37 36 51 44 42 45 45 37 46 37 38 41 33 33 41 43 45 47 46 44 45 45 44 42 42 42 40 39 38 38 38
50 52 50 43 50 50 52 52 46 45 45 43 37 43 38 47 38 37 37 37 36 35 37 42 36 33 40 41 42 43 45 47 45 38 36 37 38 39 41 40 40 39 38 36
52 47 43 48 49 50 45 36 36 38 34 37 39 42 40 45 37 35 37 35 35 32 34 35 34 32 37 42 42 44 44 46 45 44 44 43 43 40 38 37 36 34 31 30
52 51 51 49 47 39 35 33 34 35 34 35 36 38 43 39 45 35 37 34 33 32 39 34 32 33 38 40 41 43 44 45 44 45 44 43 43 41 38 36 34 32 30 30
51 46 39 42 36 33 32 30 33 32 33 35 35 35 36 39 41 35 35 34 33 36 34 33 31 35 38 40 42 43 45 44 43 40 39 38 36 35 34 32 33 31 30 30
39 35 31 33 31 30 30 31 32 32 33 34 35 34 34 34 34 34 33 32 34 30 25 26 32 35 37 40 42 41 40 37 37 36 34 32 32 31 31 29 28 28 29 28
34 34 28 29 31 32 32 33 33 33 35 34 35 35 37 33 33 33 32 31 30 31 30 31 33 36 38 38 38 37 35 34 35 36 33 32 31 31 30 30 30 28 25 23
34 32 31 32 32 31 32 32 32 35 34 35 34 33 33 32 33 32 31 28 27 29 31 33 35 36 36 37 37 38 38 35 34 34 33 32 31 29 30 30 28 23 22 18
32 31 32 32 32 31 32 32 33 36 34 32 32 31 30 33 31 29 31 28 30 31 32 34 35 35 35 37 36 36 36 35 34 33 33 32 32 30 29 28 29 29 28 18

GFSNW_sfc_temp_036.txt.gz
Temp
52 52 52 52 54 54 52 48 41 55 58 43 43 43 49 52 57 60 57 58 56 54 54 52 52 53 58 61 58 53 54 47 39 50 58 59 56 52 50 34 39 37 31 38
52 51 52 52 52 54 48 44 47 54 57 38 39 47 51 53 55 56 56 56 59 59 53 50 53 54 58 59 58 53 53 45 36 43 51 54 52 55 53 48 40 38 29 37
51 51 51 52 52 54 49 46 40 47 49 49 46 43 45 46 56 54 56 56 57 56 54 56 52 53 57 58 58 52 56 49 43 36 45 50 47 51 51 47 33 37 37 44
51 51 51 51 51 53 49 45 44 48 40 42 46 48 47 45 46 56 58 55 55 52 50 52 48 53 54 56 54 54 54 46 48 50 52 52 51 52 51 48 47 40 45 46
51 51 50 50 51 51 45 43 42 48 44 48 43 46 45 46 50 54 54 52 56 55 53 54 50 53 51 52 52 51 53 44 44 42 49 49 46 50 49 50 50 48 49 47
50 50 49 49 51 50 43 48 51 48 47 46 42 43 47 49 53 56 59 57 55 52 57 59 58 58 57 56 52 49 49 44 36 35 42 42 34 44 50 51 51 51 43 49
50 49 48 49 51 49 48 49 50 45 40 46 45 48 51 51 53 51 59 60 55 58 60 58 58 55 54 55 52 54 45 42 34 31 32 25 45 54 53 49 49 50 51 50
49 49 49 49 50 50 46 51 47 45 38 48 49 50 51 54 56 54 58 60 62 62 55 46 42 38 42 47 52 51 51 39 33 30 29 39 47 52 50 46 44 50 49 51
49 49 49 50 50 50 45 49 49 46 42 43 54 49 52 49 48 51 54 57 58 58 45 38 36 34 41 41 46 50 47 42 36 29 27 24 41 51 56 53 36 52 51 49
49 49 49 50 50 50 47 48 50 46 43 49 55 50 49 53 50 46 48 52 51 51 35 33 32 34 47 36 36 34 32 32 30 24 25 33 47 54 54 38 38 51 51 50
48 48 49 49 50 50 49 48 50 47 44 46 51 56 51 55 55 44 48 47 47 42 37 37 33 31 39 37 43 39 37 31 26 31 26 30 52 52 45 46 48 51 50 50
49 49 49 49 50 51 51 45 50 51 44 46 52 52 54 55 63 51 48 52 50 48 44 39 36 33 31 36 32 46 37 40 35 38 36 48 51 50 51 51 49 48 48 49
47 49 49 50 51 52 49 46 48 48 44 46 48 51 58 60 63 61 49 48 55 53 52 44 39 36 35 31 33 39 46 49 42 43 46 47 48 50 50 50 47 47 48 47
48 49 49 50 51 51 50 46 49 50 48 38 46 58 56 61 61 61 60 58 56 55 50 39 37 36 45 33 42 41 45 49 45 41 44 47 47 47 47 46 46 45 45 44
48 49 49 49 50 50 47 47 49 50 47 40 42 53 58 59 59 61 60 59 53 48 44 35 37 41 42 37 39 39 48 46 39 37 48 44 43 45 47 45 43 43 41 40
48 49 49 49 49 49 47 42 49 51 52 45 38 49 52 56 58 55 58 54 52 49 47 40 44 48 41 33 31 45 47 48 49 45 47 44 43 44 44 41 41 41 39 39
48 48 49 49 49 47 44 44 50 52 51 44 37 40 50 54 52 48 50 52 50 49 45 41 41 43 42 32 33 44 46 47 47 46 45 40 42 38 41 40 39 40 39 38
48 48 49 49 49 50 46 51 50 52 49 47 37 40 42 52 43 41 46 43 46 45 42 39 37 40 34 33 42 45 44 44 45 44 45 43 42 41 39 40 39 37 35 34
48 49 49 48 48 47 48 50 50 51 49 40 35 36 36 47 40 40 40 41 36 43 35 36 39 34 32 38 41 43 43 43 40 42 42 41 38 38 38 38 37 34 33 33
49 48 46 40 46 50 52 50 45 44 44 42 36 41 37 44 36 36 33 34 34 32 35 41 34 32 37 37 40 42 43 43 42 36 34 36 35 36 37 37 36 35 33 31
48 45 42 48 49 49 44 37 36 38 34 36 38 39 39 43 35 35 35 34 34 34 35 35 33 32 36 40 40 42 43 45 44 43 41 41 40 37 36 34 34 31 31 31
49 49 49 47 44 38 35 32 34 34 33 35 36 38 41 38 44 37 36 34 33 30 38 34 31 33 39 41 41 42 44 44 43 43 41 41 40 38 36 33 29 30 31 30
49 43 37 41 34 32 31 29 32 31 33 34 35 34 36 38 40 34 32 27 31 32 33 32 31 36 38 40 41 41 41 40 40 39 39 37 36 35 32 29 30 30 29 28
36 34 30 31 29 29 29 31 32 32 33 34 34 34 34 33 35 33 33 33 33 28 26 27 31 35 37 39 41 38 37 35 35 35 34 32 30 30 31 30 29 28 27 27
33 33 27 28 31 32 32 33 33 33 34 34 34 34 36 33 33 33 32 30 29 27 24 31 33 35 36 36 36 35 33 33 33 33 31 30 30 30 29 29 29 28 24 22
33 32 30 32 31 31 31 32 32 35 33 34 35 33 31 31 32 31 30 29 27 28 30 32 35 35 35 36 35 36 35 34 33 32 32 31 29 29 29 28 27 23 22 19
31 30 32 32 32 31 32 32 33 35 34 32 30 29 29 32 29 27 30 26 29 31 32 33 35 34 34 35 33 33 33 33 33 32 32 31 31 29 28 26 27 28 25 20

GFSNW_sfc_temp_042.txt.gz
Temp
52 52 53 53 52 53 50 44 34 51 54 43 44 41 43 50 53 56 52 50 49 48 48 46 47 48 54 56 54 50 50 45 38 46 51 52 49 48 45 34 36 33 30 35
52 52 52 52 52 53 47 40 42 52 53 37 38 46 47 48 50 50 50 49 51 51 47 44 48 48 55 54 54 50 50 41 35 41 45 48 46 48 46 42 36 34 28 36
52 52 52 53 51 53 47 41 34 43 45 49 42 42 43 42 52 50 51 49 50 49 47 49 46 49 52 53 54 51 53 43 41 38 42 46 41 46 45 43 32 35 35 41
51 52 52 52 51 52 46 41 38 44 36 39 42 44 44 41 42 51 51 46 48 47 44 45 44 48 49 51 50 51 51 42 43 44 46 47 46 46 45 43 43 39 43 41
51 51 52 51 51 52 43 38 38 42 39 43 41 42 42 41 45 46 45 45 48 48 43 48 45 48 47 48 48 48 48 41 41 38 44 44 42 46 44 44 43 43 43 43
50 51 51 51 51 51 41 44 44 43 42 41 38 40 43 43 47 50 51 50 49 44 49 55 55 54 53 51 46 45 45 40 36 36 38 40 34 41 45 45 45 47 39 47
50 51 51 51 51 51 45 45 44 41 35 41 41 43 45 45 47 45 52 52 48 52 58 55 52 50 49 50 47 48 41 39 34 29 31 26 44 46 47 45 46 47 46 46
50 50 50 50 50 52 45 44 43 40 30 41 43 45 44 47 49 48 50 53 57 57 54 46 41 38 39 41 45 44 44 37 32 30 29 37 42 45 45 44 44 47 44 44
49 50 50 50 51 51 46 45 44 42 39 39 47 45 47 42 43 43 46 55 56 54 44 37 35 33 39 38 41 45 43 39 36 27 27 25 40 47 50 49 37 47 46 44
50 49 50 51 50 51 45 44 45 41 39 45 47 44 43 48 45 40 44 48 47 50 32 32 32 34 43 35 36 34 32 31 30 22 25 33 44 48 50 37 39 47 48 45
49 49 50 50 50 50 45 43 46 41 41 43 48 47 45 47 48 39 43 45 45 38 37 36 34 30 37 36 40 38 37 32 27 26 24 30 48 47 43 45 43 46 46 46
49 49 50 50 49 50 47 40 46 47 41 43 47 47 49 48 50 49 45 45 45 47 40 36 34 32 29 36 33 42 38 41 36 38 38 46 46 47 48 47 46 46 47 45
48 49 49 49 49 50 48 42 44 42 39 41 43 43 49 52 51 53 46 44 50 47 48 41 38 34 36 33 35 38 41 44 39 41 44 44 44 44 45 45 45 46 45 45
48 48 48 48 49 49 49 41 45 43 43 34 39 53 49 54 53 52 52 53 50 49 46 39 35 35 42 34 42 40 42 44 40 39 41 41 44 43 42 41 42 42 41 41
48 48 48 48 49 49 47 45 45 47 42 36 39 48 51 55 52 51 52 53 48 44 40 34 36 40 40 36 39 37 44 42 39 40 46 46 45 41 42 41 39 40 39 37
48 48 48 48 48 49 45 38 46 48 48 40 34 46 46 51 53 52 49 52 47 45 42 36 42 47 44 36 35 47 47 47 47 48 47 41 41 40 41 39 38 38 38 38
47 47 48 48 48 45 41 39 44 50 50 41 34 34 47 51 51 48 48 47 45 45 42 37 41 41 44 32 35 45 43 45 44 43 43 38 41 37 38 38 37 38 36 36
48 48 48 48 49 48 41 45 48 50 45 43 33 35 39 48 44 43 46 42 42 43 39 37 37 40 34 36 41 40 41 42 41 40 41 42 38 38 36 36 36 34 32 32
48 48 48 46 45 40 41 48 48 50 45 34 32 33 34 45 40 42 41 40 35 42 34 37 39 33 36 38 38 39 40 41 36 38 38 38 35 34 34 34 33 32 32 33
48 46 43 36 39 48 48 44 41 42 44 43 35 40 37 41 35 36 36 36 35 35 37 40 34 35 38 38 40 40 39 39 39 34 32 33 32 32 33 34 35 34 33 33
41 39 37 43 49 45 41 34 34 36 34 36 38 39 39 43 35 34 34 33 34 33 36 34 32 33 36 38 39 41 40 41 40 40 39 39 36 34 32 32 32 32 32 31
42 46 48 45 41 36 33 32 32 32 33 35 35 36 41 37 42 36 35 33 32 32 37 34 32 33 36 37 37 39 40 40 39 40 38 38 37 36 33 31 30 31 30 29
46 41 36 37 32 31 30 28 30 31 32 34 34 34 35 36 38 33 32 32 31 34 33 31 31 35 37 38 39 39 41 40 39 38 37 35 33 32 31 30 30 30 29 29
35 32 28 26 24 29 29 30 31 32 32 33 33 33 34 33 33 32 32 32 33 29 27 27 31 34 34 36 38 37 35 34 34 33 32 31 30 30 30 29 29 29 28 27
32 32 26 27 31 32 32 32 32 33 34 33 33 34 36 33 32 32 32 30 27 27 26 29 32 33 34 33 33 33 32 31 31 31 29 28 29 29 28 29 29 27 25 23
32 31 29 31 30 29 30 31 31 34 33 33 34 31 31 31 31 28 25 27 22 25 29 32 32 32 32 32 32 32 32 31 30 30 29 29 28 28 27 27 25 23 22 20
30 29 29 28 29 27 28 29 30 34 34 31 31 23 23 29 24 21 23 21 25 27 31 32 32 32 31 32 31 31 31 30 30 30 30 29 29 27 27 24 25 26 23 21

GFSNW_sfc_temp_048.txt.gz
Temp
53 53 53 53 53 53 51 45 35 57 58 38 40 35 49 55 59 63 59 59 58 55 57 56 55 57 63 69 70 60 67 61 54 58 65 67 68 63 62 51 50 53 51 53
53 53 53 53 52 52 47 38 39 53 52 33 35 47 48 54 56 59 57 56 59 59 55 52 58 60 67 67 67 64 64 58 50 53 58 63 61 64 64 61 56 52 45 54
52 53 52 52 52 52 49 39 33 40 43 53 46 43 43 47 57 58 60 59 60 57 55 57 52 57 58 63 68 55 62 62 56 49 56 63 56 60 63 60 51 53 54 58
51 52 52 52 51 51 47 39 39 43 34 40 49 50 48 46 47 57 60 56 57 55 51 53 51 56 56 58 54 63 64 56 59 62 64 64 62 62 62 59 60 54 58 61
52 52 52 52 51 51 43 35 42 49 47 46 45 47 44 47 51 53 52 53 57 58 54 55 49 55 55 58 58 61 64 56 59 55 62 61 58 62 64 62 63 63 62 62
51 51 51 51 51 49 41 44 55 52 46 45 41 44 48 48 53 56 59 57 55 53 57 60 58 59 58 60 59 57 57 57 53 49 57 56 44 55 61 63 64 63 58 66
51 51 51 51 50 49 48 52 53 44 41 43 42 45 49 49 52 51 57 59 53 60 63 62 58 59 57 59 60 63 56 55 54 48 42 35 60 65 67 64 66 69 67 70
51 51 51 51 50 50 48 52 49 46 38 47 47 45 47 51 54 52 55 57 60 62 59 52 47 45 48 53 58 58 60 56 48 42 45 55 55 58 60 59 62 71 68 71
50 50 51 50 49 50 49 51 55 50 44 45 53 47 47 46 48 51 54 61 61 59 52 49 42 41 45 48 49 54 56 56 52 44 42 37 58 67 69 66 54 71 70 67
49 50 50 49 49 50 50 49 54 51 45 53 54 46 44 51 50 49 53 53 52 58 47 40 42 43 53 42 43 39 44 45 43 46 44 53 64 65 67 51 56 70 71 69
49 50 50 49 49 50 50 47 53 51 46 46 51 55 51 52 51 48 54 51 50 48 43 44 45 43 49 50 53 48 46 44 41 48 40 40 63 61 58 67 65 69 67 68
49 49 49 49 49 51 51 42 51 54 49 39 47 50 53 51 62 58 56 55 54 55 49 49 51 42 42 51 44 57 47 55 53 53 54 66 64 69 70 71 71 66 68 67
49 49 49 49 49 51 49 44 49 49 46 48 42 41 54 56 57 65 54 59 61 57 62 54 51 44 51 42 49 53 55 56 51 52 64 64 65 69 67 68 68 68 69 67
48 48 48 49 49 49 49 46 52 53 46 38 43 50 50 58 58 60 62 63 62 61 58 53 46 45 56 51 56 51 60 54 55 57 63 58 62 66 69 64 62 62 66 65
48 48 48 48 48 49 50 51 53 56 50 37 40 49 50 49 54 58 60 59 60 56 51 43 46 56 52 50 50 52 58 57 52 53 65 61 69 71 68 63 60 62 62 60
48 48 48 48 49 50 47 39 48 55 54 42 33 49 50 51 50 54 57 58 58 57 55 51 57 57 54 44 48 60 62 63 64 62 58 58 55 57 64 63 61 61 60 60
47 47 47 49 49 53 47 44 49 51 53 43 34 39 48 51 50 53 53 57 55 55 53 51 54 53 53 45 45 59 62 63 60 55 53 54 52 54 52 55 55 53 57 56
47 48 48 49 49 50 48 50 49 53 50 47 34 36 42 55 49 43 50 46 50 53 52 52 51 52 49 45 57 61 58 55 53 53 51 52 51 50 49 48 50 49 49 49
48 48 48 49 48 45 42 48 49 54 49 36 33 34 36 50 46 45 42 47 38 49 44 48 52 48 43 52 55 57 54 52 53 48 49 48 48 47 44 46 46 45 42 43
48 47 40 36 44 47 46 42 40 41 42 41 35 40 36 44 38 40 41 38 37 35 42 49 42 46 48 46 48 50 50 50 49 45 43 44 43 44 43 43 44 42 41 40
47 40 38 48 48 45 42 36 35 36 32 38 43 44 39 45 38 38 42 38 35 33 37 41 37 36 36 41 45 47 45 47 50 52 51 49 48 44 42 39 40 39 37 34
45 44 50 49 46 42 35 33 34 33 34 37 38 40 41 41 46 39 36 36 34 32 37 36 32 34 36 38 39 42 46 47 46 48 47 45 45 44 40 38 35 34 32 31
45 43 37 39 35 30 31 29 33 33 33 35 36 35 40 40 40 35 36 35 34 35 32 30 30 33 35 34 35 35 36 37 37 38 38 37 36 36 34 31 31 31 30 30
37 34 29 32 30 32 32 31 33 33 32 33 35 34 35 34 34 34 34 33 35 31 29 28 31 31 33 34 34 33 32 32 32 31 31 31 30 30 30 30 31 30 30 30
33 35 28 29 31 31 31 31 34 34 33 33 33 35 37 33 34 33 35 31 27 28 25 28 31 30 33 33 32 31 30 30 30 30 30 30 31 31 30 30 30 29 28 27
33 28 25 28 28 26 27 28 28 32 32 32 35 35 32 29 30 28 24 27 21 24 26 30 31 33 33 33 32 31 31 31 31 31 30 30 28 28 27 28 27 27 27 25
29 25 26 24 25 23 25 26 28 31 33 30 33 25 23 32 26 22 24 20 23 25 28 27 29 31 32 32 31 31 31 30 30 29 29 29 31 32 31 28 28 27 26 25

GFSNW_sfc_temp_051.txt.gz
Temp
53 54 54 53 53 53 50 44 35 57 60 38 39 36 49 56 60 65 64 65 63 63 63 61 62 61 67 72 71 62 70 64 56 60 71 74 70 65 64 53 52 57 54 55
52 52 53 53 53 52 46 39 42 56 54 32 35 44 48 56 56 59 59 59 63 67 62 57 62 64 72 71 68 64 68 61 51 56 63 68 64 67 68 66 63 54 45 54
53 53 53 53 52 52 47 40 33 40 43 51 45 44 46 47 59 59 62 59 65 63 59 64 59 62 65 70 69 60 62 63 57 51 58 64 59 63 67 64 53 54 56 61
52 52 53 53 53 52 46 40 39 43 33 39 48 50 50 49 49 58 62 55 53 60 56 59 58 62 59 63 59 65 64 57 61 63 66 67 65 64 65 62 63 55 60 62
51 52 52 52 52 51 43 34 44 49 48 46 45 47 47 50 54 56 54 54 52 58 57 60 57 60 59 59 62 63 67 57 60 57 65 65 61 66 66 67 66 65 66 65
51 51 52 52 52 50 42 42 55 53 46 44 44 45 48 50 57 58 61 60 58 52 60 62 63 62 61 61 59 60 58 58 56 49 61 61 51 61 64 66 69 67 60 68
51 51 52 51 52 51 43 45 56 46 43 42 46 49 51 51 56 53 60 63 59 62 67 66 63 59 60 59 59 63 57 58 56 48 45 38 59 71 70 66 68 72 71 73
51 51 51 51 50 51 45 54 51 48 40 49 47 49 51 54 57 54 58 63 67 70 62 53 49 46 46 51 56 58 63 57 49 44 46 55 62 65 65 64 64 74 72 74
49 49 50 50 50 51 48 57 58 51 44 47 53 49 53 49 52 53 53 65 68 64 53 49 43 40 47 46 45 57 61 60 50 48 43 39 57 69 75 74 56 74 75 74
49 49 49 50 51 51 48 49 56 49 44 54 53 47 50 56 54 48 53 58 56 61 46 40 43 44 56 46 41 41 47 49 43 46 45 54 67 72 76 53 56 75 76 75
49 49 49 50 50 50 48 47 54 50 47 51 52 54 51 53 54 48 53 53 51 49 43 45 47 46 51 52 56 48 45 45 42 47 44 41 68 68 60 68 74 75 75 76
48 48 49 50 50 50 51 45 52 56 48 43 52 55 59 56 62 59 59 52 54 56 52 53 53 47 47 52 45 61 47 53 50 54 55 67 67 69 74 78 76 75 75 76
49 49 50 50 49 49 49 49 52 50 43 47 50 51 56 58 61 67 54 58 63 61 65 59 54 46 55 44 50 55 60 64 57 56 63 67 70 71 75 76 75 77 77 76
49 49 50 50 49 49 51 51 54 52 47 39 45 58 55 60 59 60 61 59 66 65 64 55 50 48 62 51 56 55 61 63 58 58 63 68 71 70 70 74 74 74 73 74
49 49 48 48 49 51 52 51 53 56 52 43 47 53 58 59 54 56 58 59 57 60 55 49 48 58 58 58 56 54 63 59 52 53 66 63 66 72 72 73 72 70 70 70
48 48 48 49 50 50 48 39 49 58 58 49 42 50 54 58 55 51 54 57 58 61 56 53 59 64 58 48 49 62 65 67 67 64 69 65 65 63 64 69 73 72 69 71
47 47 48 49 50 51 45 45 54 55 62 51 40 40 52 56 53 49 52 56 57 57 56 53 56 59 58 50 46 60 65 66 67 70 61 59 61 62 60 65 70 62 68 68
48 48 48 49 48 49 49 54 52 58 56 53 35 36 40 50 41 39 53 50 53 54 52 56 53 57 54 47 58 61 64 64 63 62 60 58 57 57 57 59 58 59 60 61
48 49 50 51 50 47 46 49 50 59 54 40 36 33 34 45 40 43 44 50 43 55 48 50 54 50 45 50 54 53 53 56 55 57 55 56 53 56 54 54 54 54 53 53
49 51 47 42 47 47 50 47 42 44 48 43 36 44 38 43 44 41 40 40 41 37 46 54 45 48 43 39 44 51 51 53 54 51 51 53 52 52 52 52 53 52 51 50
53 47 40 47 48 46 40 34 35 36 34 40 44 46 42 48 40 38 44 35 38 36 39 44 42 38 34 37 38 45 49 52 53 53 54 55 54 53 50 48 47 46 44 41
47 50 52 48 41 38 35 34 37 37 38 40 41 46 51 47 45 37 40 37 36 33 37 35 29 32 36 35 35 36 40 43 43 47 47 48 49 49 46 42 38 36 33 32
53 49 43 40 37 31 31 29 33 34 35 35 38 39 44 44 41 35 36 34 33 34 32 30 31 34 36 35 35 34 35 35 35 34 34 34 33 34 33 31 32 32 30 29
37 35 31 32 30 29 29 29 32 33 33 34 34 36 37 35 33 32 33 33 35 32 30 27 30 31 33 34 34 33 31 31 31 31 31 30 30 30 31 31 31 31 30 30
34 37 27 29 31 32 32 33 33 33 33 33 34 34 35 34 32 33 34 31 27 27 25 28 30 31 33 33 33 32 32 31 32 32 31 30 30 30 29 30 30 29 28 27
34 29 27 29 30 27 28 29 30 35 34 33 34 33 31 29 31 28 26 27 22 24 28 29 31 32 32 32 32 32 32 31 31 31 30 29 29 29 29 29 28 27 27 26
29 26 27 27 26 25 26 27 29 33 33 31 32 27 25 32 26 23 26 22 25 27 27 29 29 29 30 31 31 31 31 31 31 31 30 30 30 29 29 26 26 27 26 26

GFSNW_sfc_temp_054.txt.gz
Temp
53 54 54 53 53 53 50 44 35 54 56 37 39 38 45 51 55 60 59 60 58 58 62 58 60 59 65 73 71 63 67 61 53 60 70 72 69 63 62 50 50 54 47 50
53 53 53 53 53 53 47 39 39 53 53 32 34 43 46 51 52 55 57 56 60 61 57 50 59 60 71 71 69 65 65 57 49 53 61 67 62 65 65 63 60 51 40 49
53 53 52 52 53 53 48 39 33 41 43 48 41 41 42 44 53 53 58 59 62 58 52 57 53 58 68 69 69 58 63 60 55 47 51 61 58 63 64 61 49 51 51 57
52 52 52 52 52 52 48 39 35 44 32 36 44 46 47 44 45 53 57 55 57 56 49 48 47 56 61 65 60 66 63 54 58 61 63 64 62 62 63 60 61 50 54 60
51 52 52 52 52 52 45 33 37 48 46 44 42 43 44 45 50 51 49 51 57 59 52 51 46 48 59 55 64 62 64 53 57 54 62 61 59 64 64 64 64 64 64 62
51 51 51 52 52 51 44 41 48 48 44 42 40 40 45 47 51 54 57 57 56 55 57 59 56 48 53 58 61 58 57 56 53 46 58 57 47 59 63 65 67 65 58 66
51 51 51 51 52 51 45 41 47 38 36 41 43 46 48 48 51 49 57 60 56 63 68 57 55 52 48 48 60 62 57 55 53 44 44 37 58 69 68 64 66 70 70 72
50 50 50 50 51 52 46 45 46 43 35 47 46 47 49 50 52 52 55 61 66 69 60 49 39 37 37 44 58 57 59 52 45 41 42 52 59 63 63 60 60 70 69 72
50 50 50 50 51 52 48 46 54 47 40 42 52 48 50 46 47 48 54 62 67 64 55 47 35 31 38 38 48 59 57 54 45 44 39 35 52 65 72 70 51 70 72 71
50 50 50 50 51 51 48 46 53 48 39 49 52 47 47 53 50 48 53 55 55 61 49 41 40 40 52 41 40 39 41 40 38 41 40 49 64 67 70 49 51 69 73 72
50 50 50 50 51 51 48 45 53 48 41 49 53 49 47 51 51 45 54 50 50 42 42 43 44 42 47 48 53 46 41 37 38 43 39 37 67 66 57 62 66 71 72 72
49 49 49 50 51 51 49 44 53 54 46 44 52 53 52 53 57 52 55 52 52 50 41 49 49 43 45 49 41 58 42 48 43 50 50 60 62 64 68 68 68 69 70 74
49 49 49 49 49 49 49 46 50 51 41 43 47 48 53 55 58 65 51 56 56 49 56 54 52 46 53 40 44 51 56 60 52 52 59 59 62 65 67 71 68 73 74 75
49 49 49 48 49 49 50 48 55 50 44 37 42 55 53 60 60 61 60 57 62 60 58 53 49 45 59 47 51 49 56 59 56 56 60 61 62 66 64 67 69 72 73 71
48 48 48 49 49 50 50 51 52 52 46 38 40 54 59 60 58 58 57 56 55 48 46 46 47 55 54 55 53 51 62 58 52 50 61 59 62 64 69 67 69 70 68 68
49 48 48 48 49 50 47 39 47 51 50 43 37 52 53 57 57 55 55 53 52 52 46 47 55 62 56 45 46 58 63 64 65 60 65 65 63 63 65 62 63 69 69 68
48 49 48 49 50 51 46 43 49 53 55 47 40 41 53 57 55 52 52 55 49 49 50 50 53 55 56 46 44 59 62 64 65 65 61 60 60 58 58 58 62 64 68 67
48 48 49 49 49 49 47 53 51 54 52 51 39 37 43 55 45 43 52 48 50 48 45 51 50 55 52 44 53 54 55 57 62 61 64 60 59 59 60 59 59 57 61 61
48 48 49 48 46 43 47 50 52 56 50 41 37 34 33 49 43 46 48 49 37 48 45 48 51 47 39 36 38 42 46 49 51 55 56 57 55 55 57 54 54 53 52 53
50 52 46 39 44 48 51 49 46 46 47 47 37 46 37 40 38 39 42 44 37 39 45 53 44 35 36 36 38 39 40 45 51 49 49 50 51 53 53 53 53 53 52 48
51 44 38 46 48 46 41 36 36 40 34 42 43 44 39 40 34 34 42 37 37 34 41 40 41 29 32 35 36 37 38 43 44 49 49 49 51 52 51 46 43 40 37 34
47 48 50 47 41 36 34 33 34 36 37 40 40 42 45 40 43 33 35 34 34 32 37 34 28 30 34 34 34 35 35 37 37 38 39 39 39 39 36 34 32 32 32 31
52 49 39 37 37 31 30 29 33 33 33 34 35 35 38 42 40 33 34 33 32 36 32 27 28 31 33 33 34 33 34 33 33 32 32 32 31 32 31 29 29 29 28 27
40 36 31 32 29 29 28 28 30 33 33 33 34 34 34 34 33 32 32 32 33 31 26 23 27 31 31 33 33 33 31 31 30 30 30 29 29 29 30 29 29 28 27 27
34 35 26 27 30 30 31 31 32 33 33 33 34 34 37 33 33 32 33 30 24 24 22 25 28 31 31 31 31 30 30 29 29 29 28 28 28 27 27 28 27 27 26 25
33 29 27 28 28 26 28 29 30 34 32 33 33 33 32 29 30 26 24 24 20 22 25 27 29 29 30 30 30 30 30 30 29 29 28 28 26 25 25 26 26 26 26 25
30 26 28 27 28 25 27 29 29 33 30 31 33 27 25 33 25 21 24 21 23 25 25 27 27 27 28 28 29 29 29 29 28 28 28 27 28 28 27 25 25 26 26 25

GFSNW_sfc_temp_057.txt.gz
Temp
53 53 54 54 54 53 50 44 35 51 54 36 38 34 39 46 49 53 50 50 49 47 48 48 50 47 54 64 63 56 60 53 46 53 64 68 63 56 54 40 42 43 38 40
53 53 53 53 53 53 48 40 39 50 50 31 32 40 39 43 43 47 47 47 51 52 48 43 48 52 58 61 58 58 58 52 42 48 55 63 58 59 60 56 49 43 34 40
52 52 52 53 53 53 48 39 32 39 42 43 37 36 36 37 47 45 48 48 51 48 45 52 47 49 56 55 54 58 61 53 50 41 46 55 51 58 59 55 39 44 42 48
52 52 52 52 53 52 48 37 34 39 33 34 37 39 41 38 38 47 48 44 45 45 41 46 46 51 49 53 55 58 58 50 53 55 57 59 57 56 57 55 55 46 49 51
51 51 52 52 52 53 46 32 36 41 39 41 37 38 37 37 43 44 43 42 45 47 43 46 45 48 47 45 48 49 58 45 50 49 56 56 54 56 57 58 58 57 56 54
51 51 52 52 52 51 44 41 41 43 40 38 36 35 37 39 43 46 50 48 45 43 47 52 49 48 48 47 45 43 47 46 43 41 52 52 42 51 56 56 59 59 51 56
51 51 51 51 52 51 45 41 43 37 34 37 36 40 40 40 44 42 48 51 47 51 55 52 49 48 49 49 48 48 40 44 42 34 39 34 51 60 60 58 61 62 61 61
50 50 50 50 51 51 46 42 42 40 33 39 40 40 41 43 45 44 47 51 55 56 53 45 38 35 39 43 48 47 46 43 35 36 38 45 53 58 55 54 53 63 61 62
50 50 50 50 50 51 47 45 45 42 35 35 46 41 43 39 40 41 45 53 54 52 47 39 34 30 37 35 40 47 41 45 37 32 32 32 45 57 63 62 44 63 62 61
49 50 50 50 50 51 48 45 47 42 34 43 46 42 41 48 45 42 45 47 46 50 37 32 33 33 44 34 33 34 33 33 32 32 32 38 54 61 63 44 43 62 63 62
50 50 50 49 50 50 48 45 48 43 37 42 48 49 41 46 46 40 43 43 44 41 34 34 32 29 40 41 45 40 36 33 31 34 30 30 55 58 51 53 60 62 63 63
49 49 49 50 49 50 49 43 48 48 42 42 46 48 50 49 49 46 46 45 45 43 37 36 37 31 34 38 34 50 36 42 38 41 37 51 54 54 56 55 54 62 61 61
49 49 49 50 50 50 49 45 46 45 41 41 42 41 50 53 52 53 41 42 51 45 45 40 39 34 40 32 38 44 49 52 44 45 50 53 56 57 58 57 56 58 64 60
48 48 49 50 50 50 49 45 47 46 41 34 40 53 47 53 53 53 51 50 54 50 46 40 38 35 46 39 43 42 46 50 48 47 52 53 59 58 57 59 58 59 61 63
48 48 49 49 50 50 48 48 48 49 43 33 37 48 52 53 51 50 51 49 47 45 38 34 36 43 44 43 43 41 51 48 40 39 51 51 55 57 59 57 58 58 60 59
48 47 49 50 49 50 46 39 46 50 47 39 33 45 48 51 50 49 50 48 46 44 42 38 44 51 46 31 35 50 54 55 55 53 58 57 57 57 56 57 56 59 58 59
48 47 48 48 48 47 42 38 43 49 47 40 34 34 47 50 49 44 44 47 44 43 44 40 40 42 44 32 32 40 45 48 52 52 54 52 51 50 54 54 55 55 57 56
48 48 48 49 49 49 44 47 50 49 46 44 29 29 37 48 38 37 44 40 42 43 41 40 41 43 42 31 37 39 41 45 47 48 51 50 51 53 52 52 51 50 49 49
49 49 49 46 44 39 43 51 51 49 45 33 31 29 31 41 39 39 40 41 31 42 35 38 40 36 29 32 34 35 37 38 41 48 49 49 48 50 50 49 48 45 41 41
50 48 42 35 41 49 50 45 41 41 41 41 30 36 31 39 35 35 33 30 30 32 35 42 34 29 34 34 36 36 36 39 42 42 40 41 42 45 39 39 39 37 35 33
45 39 36 42 48 42 38 31 32 35 30 34 35 37 35 40 33 33 34 31 31 27 32 34 31 26 29 33 34 35 36 37 38 41 40 40 39 38 36 33 32 31 30 27
44 44 46 44 39 35 33 31 32 30 30 34 33 33 39 37 40 34 34 33 33 30 36 31 23 27 31 32 32 32 33 34 33 34 33 33 33 33 31 30 28 27 27 27
46 42 35 36 33 27 22 24 29 29 31 32 33 33 33 36 36 32 32 30 30 34 28 22 23 29 31 31 32 31 31 31 30 30 30 30 29 29 28 27 27 27 25 25
34 33 23 26 21 24 24 25 27 31 31 30 32 33 33 32 32 32 31 30 31 26 20 18 24 27 28 30 30 29 27 27 27 27 27 26 25 25 25 25 26 25 24 24
27 28 22 21 27 25 26 28 29 30 31 31 32 32 34 31 30 29 30 25 19 20 17 21 25 27 28 28 28 28 27 26 25 25 25 25 25 25 24 25 25 25 24 24
28 24 21 24 22 22 24 25 26 31 30 30 32 32 26 25 24 21 20 19 15 17 21 24 26 25 27 27 27 27 27 27 26 26 25 25 24 24 24 25 25 24 24 23
27 22 25 24 23 23 24 27 26 30 29 27 28 21 20 28 20 18 21 16 18 21 23 23 24 24 24 25 25 26 27 27 26 26 26 25 26 27 26 23 24 25 25 23

GFSNW_sfc_temp_060.txt.gz
Temp
52 52 52 53 53 53 50 44 35 49 52 35 36 32 39 45 44 49 46 47 45 43 46 44 45 45 52 58 54 49 56 48 43 49 59 61 61 55 52 40 39 39 35 39
52 52 52 53 52 53 48 41 39 49 48 30 31 38 39 42 42 43 44 43 46 47 42 40 45 47 57 55 53 48 50 46 39 42 52 59 54 55 57 52 46 42 34 41
51 52 52 52 52 52 48 37 32 39 41 40 36 35 35 37 46 42 43 43 45 43 41 44 41 44 53 54 53 49 49 47 44 40 44 51 48 53 57 52 37 41 41 48
51 51 52 52 52 52 48 36 34 38 32 34 37 38 39 36 36 44 45 40 40 39 35 39 40 46 47 53 50 51 48 39 47 51 54 56 54 54 54 52 50 43 47 49
50 51 51 51 51 52 44 32 35 39 35 41 36 37 35 35 39 41 39 39 43 43 38 40 39 43 44 45 50 46 47 38 44 45 53 55 52 54 56 56 52 51 52 50
50 51 51 51 51 50 44 44 42 43 39 37 34 34 35 38 40 43 45 44 42 40 43 46 46 46 47 46 45 43 41 38 36 33 48 50 39 50 54 53 54 52 46 53
50 51 51 51 50 50 45 42 43 37 33 36 35 39 40 38 40 38 45 46 42 48 53 49 47 45 46 45 45 48 39 37 36 32 36 31 49 56 57 54 57 58 56 58
50 50 50 50 50 51 45 44 42 38 33 36 38 39 40 41 42 40 43 46 50 52 46 38 36 32 37 40 45 45 47 40 32 31 32 42 48 52 52 51 53 60 59 61
50 50 50 50 51 50 47 45 45 40 35 35 43 39 41 37 36 37 41 49 51 48 40 34 29 26 33 34 37 46 42 42 35 32 29 27 43 55 59 59 42 58 61 60
49 49 50 50 50 51 47 44 46 41 33 39 42 38 38 43 39 35 39 41 42 47 33 28 28 30 41 32 31 31 31 30 30 32 31 35 49 53 60 43 43 58 61 61
49 49 49 50 50 50 47 44 46 41 35 38 43 47 41 43 42 36 39 40 40 38 33 31 30 26 35 34 40 37 33 30 30 32 31 28 51 52 44 47 52 54 55 55
49 49 49 49 49 50 49 42 46 47 40 39 47 48 50 50 48 44 41 41 41 42 36 33 33 27 27 34 31 46 34 41 35 39 37 51 51 52 54 53 52 53 52 55
49 49 49 49 49 50 49 44 45 44 39 38 40 41 48 51 49 50 41 41 48 46 44 38 36 32 36 31 31 38 45 49 42 41 49 51 54 55 56 55 55 58 56 55
48 49 49 49 50 50 49 44 46 44 40 32 38 48 45 51 50 50 50 48 50 49 44 38 32 31 41 33 39 40 47 48 46 44 49 52 54 56 56 59 59 58 59 56
48 48 49 49 49 50 48 46 47 48 40 32 36 45 49 52 49 49 49 46 45 44 40 36 33 37 38 37 38 38 45 43 40 41 50 48 50 58 60 57 58 59 57 56
48 49 49 49 49 49 45 39 46 49 45 39 31 42 44 47 48 47 45 45 44 42 41 37 39 44 40 31 33 40 42 43 45 43 47 50 50 51 54 53 53 56 55 57
48 47 49 49 49 46 40 37 43 49 47 39 32 34 42 46 46 44 44 45 46 44 42 39 40 41 43 30 32 38 40 41 44 45 47 46 47 46 50 51 52 52 52 51
48 48 49 49 49 48 43 47 50 49 43 43 30 30 35 45 37 38 43 41 42 42 41 41 39 42 40 32 34 37 39 40 42 42 46 45 48 49 48 49 48 44 40 38
48 48 48 45 43 40 42 48 49 47 42 31 26 26 29 41 38 38 38 39 31 40 31 36 40 33 25 29 31 33 35 36 38 43 42 43 42 40 40 41 40 35 33 33
48 46 40 34 41 47 48 43 37 37 38 37 29 34 31 38 34 33 33 30 29 32 35 39 30 26 32 32 34 33 34 36 38 37 36 38 38 35 34 33 33 32 30 29
41 36 36 42 47 41 37 31 31 34 30 32 33 35 32 38 33 33 32 32 32 27 32 30 25 23 27 31 31 33 34 35 35 37 36 37 36 35 32 30 29 28 27 26
42 43 43 41 40 36 31 30 30 30 31 33 33 35 37 36 37 34 34 30 32 26 33 23 17 25 30 30 29 29 30 32 31 32 30 30 30 29 28 27 26 25 25 25
44 39 36 34 29 21 19 23 27 26 30 30 32 33 33 35 36 32 32 30 29 33 23 18 21 26 28 28 28 28 28 28 28 27 27 27 26 27 26 25 25 25 23 23
32 29 19 20 16 20 20 21 21 27 28 28 31 32 32 32 31 31 29 27 28 18 15 14 22 25 26 27 27 26 24 25 25 24 24 24 24 23 24 24 24 23 22 23
25 25 15 18 23 21 22 23 25 27 27 29 30 32 32 29 27 26 27 21 14 16 12 19 23 25 26 26 26 25 25 24 23 24 23 23 24 23 23 24 25 24 23 22
27 24 18 21 18 18 19 19 23 28 29 30 31 28 24 23 22 20 18 17 12 16 19 22 23 23 23 25 25 25 25 25 25 25 24 24 23 23 23 23 23 22 23 22
25 21 24 22 22 21 22 24 24 29 27 23 25 17 18 25 19 16 18 14 17 19 20 21 21 22 22 23 23 23 22 22 23 24 25 25 25 25 24 21 22 23 22 21

GFSNW_sfc_temp_063.txt.gz
Temp
51 52 52 52 52 52 50 45 35 48 51 35 35 31 38 45 43 47 44 44 43 41 42 41 41 43 49 54 53 46 49 45 40 47 57 58 55 51 51 41 38 37 34 42
51 51 51 52 52 52 47 40 38 47 48 30 31 37 37 41 40 41 41 40 43 44 40 36 42 45 53 54 52 48 50 41 34 41 48 52 50 52 53 48 43 41 34 39
51 51 51 52 52 52 47 36 32 39 41 38 36 34 34 35 43 41 42 40 42 40 38 41 38 41 50 52 52 50 49 43 39 32 40 47 45 50 54 50 39 40 43 46
50 50 51 51 51 52 46 35 33 39 32 34 37 38 37 35 35 42 42 38 39 36 32 36 36 41 46 51 50 49 46 38 40 40 44 48 48 51 52 50 48 42 46 46
50 50 50 51 51 51 43 32 35 39 35 39 36 37 35 36 39 39 37 36 40 39 35 37 34 39 39 42 47 46 46 36 38 36 45 45 45 50 53 50 49 48 50 47
50 50 50 50 50 50 41 42 42 41 38 36 34 34 36 37 41 42 44 41 39 36 40 43 45 43 44 44 44 41 40 37 35 33 39 41 36 45 50 53 57 50 44 51
49 49 50 50 50 50 45 44 42 37 32 35 36 39 39 37 40 37 42 44 40 45 48 47 45 43 43 43 44 45 38 37 34 29 34 27 42 51 53 52 55 55 53 55
49 49 49 49 49 50 45 44 43 39 33 36 38 39 39 41 41 39 41 44 47 49 43 37 34 31 33 37 42 42 43 37 32 28 30 37 42 48 49 48 49 57 56 58
49 49 49 49 50 50 47 45 45 41 36 34 42 38 40 34 35 36 39 46 49 45 38 33 29 24 31 30 37 44 43 43 34 31 28 25 39 50 58 54 39 54 58 60
49 50 50 50 49 49 47 44 46 40 33 39 43 37 37 43 38 34 38 41 41 44 30 28 29 27 37 30 30 32 32 32 32 30 28 33 44 47 51 36 38 51 52 52
49 49 49 49 50 49 47 44 46 41 35 38 43 45 41 43 42 34 37 38 36 33 29 29 28 24 32 34 36 33 31 28 27 29 27 27 48 46 37 44 49 51 52 53
48 49 49 49 49 50 49 41 46 47 39 37 46 48 47 45 48 44 42 41 40 39 32 30 31 26 25 32 28 41 32 38 32 35 36 48 49 47 49 50 49 53 50 55
48 48 49 49 49 50 48 43 44 43 38 38 39 39 47 51 51 51 38 40 46 42 42 35 34 29 33 26 29 36 40 44 38 39 45 48 52 53 55 54 54 54 54 54
48 48 48 49 49 50 49 43 45 43 39 33 34 48 45 51 50 50 50 46 47 45 41 36 32 33 39 30 37 37 41 43 43 43 48 51 52 54 56 54 55 57 57 56
48 49 49 49 49 50 48 45 46 48 40 30 32 43 48 49 49 48 48 46 45 40 37 35 35 36 39 39 38 33 39 38 34 33 42 40 48 52 53 53 52 55 55 55
47 48 49 49 49 49 45 38 45 49 46 37 28 40 43 46 47 46 44 43 42 43 40 35 39 43 39 30 34 39 41 42 41 40 43 42 46 49 50 50 49 51 48 46
48 48 49 49 49 46 39 37 43 50 47 37 32 30 41 46 44 42 41 45 43 41 39 36 37 39 42 31 28 36 39 40 41 43 42 43 45 43 46 47 45 44 42 39
48 48 48 49 48 47 43 45 49 49 43 40 32 32 35 46 38 37 42 39 40 41 38 40 38 40 38 27 31 35 37 38 41 40 44 43 43 42 40 41 40 36 33 32
48 48 48 45 43 39 42 49 50 46 42 32 29 27 30 41 37 37 38 39 32 40 34 35 38 30 23 27 30 31 32 33 35 38 42 41 38 36 36 34 34 30 28 29
49 45 39 33 41 47 48 43 37 36 39 35 27 32 34 38 33 30 33 33 32 31 34 37 28 25 30 31 31 31 31 33 35 34 34 35 36 33 31 30 30 29 28 28
41 38 35 42 46 41 37 31 31 33 28 30 31 33 32 37 33 32 33 32 31 28 32 29 24 22 26 29 28 30 31 32 32 33 32 32 32 30 29 27 27 27 27 25
41 41 42 42 37 31 29 23 27 29 30 32 34 35 36 34 39 33 34 32 31 24 30 23 18 23 27 27 27 27 28 28 28 29 28 28 28 27 26 25 24 24 24 23
42 37 32 30 24 18 16 21 26 25 28 28 32 33 33 35 36 33 32 29 28 30 21 17 19 25 26 26 26 25 26 26 26 25 26 26 25 26 25 23 23 23 22 22
29 26 17 18 14 18 19 20 22 25 27 28 30 32 32 32 31 30 25 25 26 16 13 12 19 23 24 25 25 24 23 23 23 23 23 23 22 22 23 22 22 21 20 20
25 24 13 16 22 22 22 23 26 27 29 29 31 31 30 26 25 24 23 17 11 14 9 15 21 23 24 24 24 23 23 23 22 23 22 22 22 22 21 22 23 23 21 21
26 22 17 19 15 16 16 18 21 27 27 28 28 24 23 21 21 18 16 14 10 12 15 20 21 20 21 20 21 22 23 24 23 24 23 23 22 21 21 22 21 21 20 19
24 20 23 18 12 13 17 20 22 27 24 22 23 16 16 25 18 12 16 12 15 17 18 19 20 20 20 21 21 21 21 21 21 22 22 23 23 23 22 19 20 21 20 19

GFSNW_sfc_temp_066.txt.gz
Temp
51 51 51 51 52 51 49 43 34 46 49 34 35 31 35 43 41 45 42 42 40 39 40 38 41 42 46 52 51 45 47 41 35 45 55 56 51 47 47 36 36 35 33 41
50 50 51 51 51 51 45 39 39 46 48 30 31 36 36 39 39 40 40 39 40 42 38 34 39 42 50 51 49 47 48 41 32 38 46 50 47 49 50 46 41 38 34 38
50 50 50 51 51 51 45 35 31 38 40 40 37 33 34 34 41 39 40 38 40 38 36 39 36 39 46 49 50 49 49 43 38 32 35 41 38 44 48 48 39 38 42 44
50 50 51 51 50 51 45 36 31 38 30 34 36 38 38 34 34 40 40 36 36 34 30 33 33 39 43 47 49 47 46 36 39 41 43 43 41 40 42 44 46 40 42 45
50 50 50 50 50 50 42 32 33 38 36 40 35 35 33 35 37 38 35 34 38 37 34 36 34 37 37 38 44 42 44 35 37 34 43 44 40 44 44 45 47 47 45 46
50 50 50 49 50 49 41 41 41 39 37 36 33 33 36 35 41 41 43 39 38 35 38 40 41 43 42 41 39 38 38 36 32 30 38 40 33 39 41 43 46 47 43 49
49 49 49 49 50 49 44 41 41 35 32 34 35 38 38 38 39 37 42 43 38 44 45 45 42 40 40 40 40 42 38 36 32 27 30 25 41 48 49 46 48 50 50 52
49 49 49 49 49 50 44 45 42 37 31 36 36 38 36 40 42 40 41 44 47 48 45 37 33 30 32 36 39 39 41 36 29 24 26 34 39 45 47 45 45 51 49 52
49 49 48 48 49 50 46 45 46 41 35 33 39 37 40 34 34 36 39 47 48 45 37 33 27 24 30 30 35 41 39 39 35 30 23 20 35 45 50 50 35 47 48 49
48 49 48 48 48 49 47 44 46 41 33 41 43 36 37 41 37 34 38 41 40 42 29 29 29 27 36 28 31 30 33 32 31 31 29 31 42 47 50 35 34 46 48 47
49 49 48 48 48 49 47 44 47 41 36 39 44 45 40 40 40 33 37 37 36 34 29 30 31 25 30 31 34 32 31 29 29 30 29 25 47 46 41 45 46 48 49 49
48 49 49 49 49 48 48 39 47 47 39 38 44 46 47 45 48 43 42 40 38 36 30 29 30 25 24 30 26 37 30 35 31 33 32 43 45 47 51 49 49 50 50 54
48 48 48 49 49 48 46 41 44 42 36 36 39 38 46 49 47 47 39 40 46 38 39 33 32 28 30 24 28 34 37 41 36 36 42 45 47 49 51 51 51 54 54 55
48 48 48 49 49 49 47 42 45 42 39 32 34 46 43 50 50 48 47 47 48 46 41 34 30 28 36 28 34 32 37 40 38 39 45 44 49 47 45 48 53 54 55 56
48 48 48 48 49 49 47 45 45 47 40 31 33 42 47 48 47 47 47 47 45 41 38 34 31 34 35 34 35 34 38 35 33 37 38 39 40 44 46 46 47 48 50 52
48 49 49 48 48 48 44 37 44 47 43 36 27 38 40 44 46 45 44 45 44 43 40 35 37 40 37 25 27 37 41 41 41 39 43 40 42 43 42 43 43 42 40 39
48 49 49 49 48 46 38 37 41 48 46 37 29 28 42 43 45 42 41 44 43 41 39 37 38 37 39 32 27 33 37 39 40 43 40 39 40 38 39 39 41 39 36 35
47 48 48 48 48 47 42 43 48 48 42 39 31 32 36 43 37 37 42 38 39 41 39 39 35 38 36 29 30 34 34 35 38 39 40 41 42 38 37 37 36 32 30 29
48 48 48 46 43 39 42 48 49 46 41 31 30 28 30 41 37 38 38 39 33 39 34 36 38 29 23 26 27 29 30 30 32 34 36 39 36 34 32 32 31 29 28 28
48 45 39 34 41 48 48 41 36 37 38 37 31 33 33 37 34 32 34 34 32 29 34 34 27 23 28 28 29 29 29 31 32 31 31 31 32 30 28 28 28 28 27 27
42 38 34 42 47 41 35 31 31 32 30 32 33 33 34 38 31 31 33 31 32 29 31 29 23 21 25 27 27 28 28 29 29 30 29 29 29 28 27 26 26 26 25 23
42 41 42 41 35 31 30 28 30 30 29 32 33 34 33 35 38 34 33 31 31 23 29 23 16 21 25 26 25 26 27 27 26 27 26 26 26 26 25 24 23 23 23 22
40 36 30 29 22 15 16 23 24 23 27 28 31 32 33 35 36 32 32 29 24 28 19 16 18 22 25 24 25 24 25 25 25 24 25 24 23 24 23 21 21 21 20 21
29 24 13 12 8 15 17 19 20 24 27 27 30 32 30 31 29 27 24 22 24 15 12 11 18 20 23 24 24 23 22 22 22 21 21 21 21 21 21 21 21 20 18 19
25 24 11 13 19 19 19 21 23 26 28 29 31 28 28 25 23 22 22 16 12 13 8 13 19 21 23 22 23 22 22 22 21 22 21 21 21 20 19 20 21 20 19 19
25 21 16 18 16 16 17 19 18 25 26 29 28 26 22 20 20 17 14 13 9 11 16 19 20 20 20 20 21 21 22 22 22 22 21 21 20 19 19 20 19 18 18 17
22 16 18 12 12 12 16 18 21 25 25 21 23 17 16 23 16 11 14 11 13 16 17 18 19 19 19 20 20 20 20 20 20 21 22 21 21 21 20 17 18 18 18 17

GFSNW_sfc_temp_069.txt.gz
Temp
51 51 51 51 51 51 47 41 32 46 49 35 34 31 36 42 42 45 43 43 40 40 40 39 41 42 46 53 52 47 50 44 40 46 56 58 57 52 52 43 42 42 42 45
50 50 51 51 51 51 42 36 37 46 47 30 31 35 34 39 39 41 41 39 41 43 40 36 41 42 50 50 50 47 50 42 37 41 49 51 46 49 49 49 48 43 38 45
50 50 50 51 50 51 43 36 30 37 40 40 37 33 33 33 41 40 41 39 42 40 38 41 38 40 47 49 50 50 49 46 38 34 37 43 40 44 46 45 39 42 44 49
50 50 50 50 50 51 43 36 31 37 30 33 35 38 36 33 34 41 41 37 39 37 33 36 37 41 43 47 49 49 48 40 44 45 45 44 44 44 46 45 46 40 46 49
49 49 50 50 50 50 40 32 33 37 35 37 34 36 33 34 37 38 36 35 38 39 35 37 37 39 41 40 45 44 46 38 40 37 44 44 41 45 46 47 47 47 48 48
49 49 49 50 50 49 39 40 41 38 36 36 33 33 36 35 40 41 44 41 39 37 40 44 45 45 44 44 41 39 40 39 36 33 39 41 35 41 46 49 50 49 44 51
49 49 49 49 50 49 42 42 40 34 29 33 35 36 38 37 40 38 42 44 40 45 50 47 45 42 42 42 42 43 38 38 35 33 35 27 45 50 51 48 51 53 52 53
49 49 48 48 49 49 43 43 40 36 30 35 35 36 36 40 42 40 41 44 48 49 45 35 33 35 36 38 41 40 43 39 33 31 31 38 44 49 48 46 48 50 48 51
48 48 48 48 48 49 45 43 44 40 33 33 41 36 38 35 35 36 40 47 47 47 37 33 28 27 33 33 37 42 40 42 36 31 28 26 42 49 52 53 40 51 51 52
49 49 48 48 48 49 45 43 46 40 33 39 42 37 36 42 38 35 38 39 37 43 34 30 29 29 38 31 32 31 33 33 30 31 31 37 47 50 52 38 43 52 53 54
49 49 48 48 48 49 46 43 46 41 35 39 44 46 42 39 39 34 38 35 36 35 31 32 31 31 35 36 38 35 35 31 32 33 30 28 50 49 44 51 54 53 55 56
48 49 49 47 48 48 48 40 46 47 39 38 45 48 50 49 47 43 41 40 38 40 35 34 36 31 31 36 31 41 35 40 37 39 40 48 50 49 53 53 51 53 54 57
48 48 49 48 48 48 47 42 45 42 34 37 39 39 46 49 49 50 38 42 45 41 44 37 36 32 37 31 33 38 41 45 40 41 47 50 53 53 50 50 49 51 54 55
48 48 47 48 48 48 45 41 45 41 38 33 36 46 43 50 49 49 48 46 48 47 44 38 34 34 40 35 39 38 43 44 42 43 47 46 52 47 46 47 49 48 49 49
48 48 47 48 48 48 45 44 44 45 40 32 34 43 47 49 48 47 47 46 44 42 37 34 35 38 39 38 38 35 43 42 39 39 40 39 42 47 45 44 44 43 41 41
48 48 48 48 48 47 42 34 44 45 45 36 31 41 41 45 46 46 43 44 43 42 38 36 39 44 41 34 33 39 41 42 42 40 43 43 45 45 42 41 42 41 38 37
48 48 48 48 48 44 38 37 42 46 45 36 32 33 41 44 44 43 43 44 40 40 38 36 38 40 42 34 32 33 36 37 38 41 41 42 42 39 40 39 39 38 36 34
49 48 48 47 47 47 42 44 47 47 42 40 32 32 35 43 37 36 43 39 40 40 37 38 37 39 37 32 30 32 33 35 38 36 38 36 41 39 36 37 37 33 31 30
49 48 48 46 43 37 41 48 48 46 42 32 32 31 30 40 38 39 38 40 33 40 35 36 38 32 29 25 25 27 29 28 31 34 36 35 34 31 31 30 31 29 27 28
47 45 39 35 41 47 47 41 36 37 39 38 31 34 32 39 35 34 33 35 33 31 34 34 29 24 26 27 28 28 27 29 30 29 30 29 30 29 27 26 27 26 25 24
43 36 35 43 47 41 37 32 31 33 30 33 34 35 33 38 33 33 34 33 33 28 31 29 24 22 24 27 27 28 29 29 29 29 28 28 28 27 25 25 25 24 23 22
41 39 41 38 33 32 31 29 31 31 29 31 33 34 36 36 36 34 33 32 32 26 30 23 17 22 25 26 25 26 27 27 26 27 26 26 26 25 24 23 22 21 21 20
40 35 30 30 23 15 15 23 23 24 26 28 31 32 33 35 36 33 33 29 23 28 20 16 18 22 24 24 25 24 26 25 25 24 24 24 23 23 22 20 21 20 19 19
29 25 14 14 11 17 18 19 20 25 27 27 30 30 30 30 29 27 24 23 25 16 13 12 19 21 22 24 24 23 21 22 21 21 21 20 20 20 20 20 20 19 17 17
24 23 11 15 20 20 20 22 24 26 27 29 31 28 29 25 22 23 23 18 13 14 12 16 20 22 23 22 23 22 22 21 21 21 20 19 19 19 18 19 19 19 18 18
24 19 14 17 16 16 18 19 20 26 25 30 29 26 22 20 19 16 13 14 10 12 17 20 21 20 20 20 21 21 22 22 21 21 21 20 19 18 18 19 18 17 17 15
20 15 17 14 16 16 17 19 21 25 26 21 24 18 16 22 15 11 14 11 14 17 17 18 19 18 19 20 20 20 20 20 20 21 21 20 20 20 19 16 17 18 17 16

GFSNW_sfc_temp_072.txt.gz
Temp
51 51 51 52 51 51 49 44 34 55 54 36 36 33 41 46 48 52 48 47 45 44 45 43 46 45 50 56 57 50 54 50 46 50 60 62 62 56 57 48 47 52 50 52
51 50 50 51 51 51 49 39 41 53 47 31 32 37 41 47 46 48 47 45 47 48 44 40 45 48 54 54 53 49 54 48 42 47 53 57 56 56 56 56 54 48 42 50
50 50 49 50 51 50 47 38 31 43 40 39 41 39 39 35 48 47 48 47 47 45 44 48 43 45 52 55 54 48 52 49 43 41 46 51 45 50 53 52 47 49 51 55
50 50 50 50 51 50 44 37 33 44 32 33 35 42 42 40 40 46 49 44 44 43 40 43 42 47 49 52 51 54 51 45 48 49 50 50 49 50 52 50 52 46 52 54
50 50 50 50 50 50 41 33 37 40 37 41 35 36 33 41 45 44 42 42 45 45 41 44 43 45 46 45 51 49 51 45 46 44 49 50 47 51 53 53 54 54 56 55
50 49 49 50 50 49 39 41 46 40 38 41 36 34 40 38 46 48 50 47 44 42 46 51 52 52 51 49 46 44 44 45 43 38 45 46 39 48 53 55 58 58 52 59
49 50 50 49 50 49 47 45 44 36 30 35 39 43 40 39 44 43 48 50 45 48 54 53 52 51 50 50 49 50 44 44 43 38 39 30 50 57 56 53 58 61 60 61
48 49 49 49 49 49 45 48 43 38 32 40 41 38 36 43 46 43 46 49 52 51 45 39 39 40 41 44 48 49 49 45 38 35 38 45 49 55 54 52 53 58 58 60
48 48 48 48 48 48 44 43 49 39 33 37 46 42 41 35 38 42 45 45 52 45 38 38 32 32 38 38 42 50 48 48 41 38 32 30 47 55 59 59 46 59 58 59
48 48 48 48 48 48 45 42 47 40 33 41 41 42 43 43 38 39 42 39 38 41 36 33 33 34 43 36 36 32 34 36 34 36 35 43 55 59 59 42 45 59 60 60
49 49 49 48 48 48 46 42 46 41 36 41 48 49 47 47 45 39 40 37 36 34 33 35 37 36 41 41 45 37 35 33 32 37 32 30 57 55 47 53 58 59 60 60
49 49 49 49 49 49 47 40 45 47 42 39 51 53 55 53 52 46 41 42 40 43 38 42 42 38 41 42 36 50 38 46 43 45 45 56 57 57 61 58 55 57 57 59
48 48 49 49 49 48 47 42 44 43 37 38 42 42 52 55 55 53 38 42 46 45 52 44 44 37 47 36 41 46 50 55 47 48 53 56 59 59 57 56 55 56 57 56
48 48 48 49 49 48 47 42 45 43 38 34 38 52 50 57 56 52 51 49 50 49 48 41 40 38 49 43 47 46 52 53 49 49 54 57 58 57 54 53 55 54 54 53
49 48 48 48 48 48 47 45 46 47 43 36 41 47 52 53 51 48 49 46 46 43 39 37 37 47 45 47 46 45 54 50 46 45 50 48 50 54 52 50 51 51 48 48
48 48 48 48 47 47 42 34 43 47 47 38 34 47 46 49 48 44 44 45 44 42 39 38 40 49 45 39 40 51 50 48 47 46 46 45 47 51 48 47 49 48 46 44
48 48 48 47 47 43 40 40 43 47 48 40 36 39 45 49 48 45 45 45 40 40 37 38 39 45 46 36 38 41 42 43 43 45 43 44 44 39 42 42 46 45 44 42
49 48 47 47 47 46 42 45 47 49 45 44 34 35 37 47 38 38 45 39 39 38 38 40 40 44 39 34 34 37 38 40 43 39 41 39 39 37 35 37 38 36 34 33
48 47 47 44 41 38 42 48 48 50 45 37 34 33 31 45 42 44 42 41 34 41 34 37 40 36 31 26 28 30 31 31 33 38 41 38 34 32 31 30 30 29 27 28
47 45 38 34 40 47 47 42 35 36 39 41 37 40 34 42 40 35 36 38 35 33 38 36 33 27 29 30 31 31 30 30 31 31 34 33 32 32 30 28 28 28 26 24
46 38 36 43 47 42 38 34 35 34 32 37 41 39 36 40 36 35 36 34 36 32 31 34 31 27 26 31 31 31 32 32 31 31 30 31 31 30 28 26 26 25 24 21
45 40 41 39 36 38 34 32 33 35 32 35 34 35 38 36 38 36 35 33 33 28 34 30 26 24 28 29 28 28 30 30 30 31 29 29 29 28 27 25 24 23 22 21
48 42 35 36 29 26 27 26 29 30 32 33 33 33 36 37 34 33 34 31 27 33 27 23 23 26 28 28 29 27 29 29 28 27 27 27 25 25 24 22 22 22 20 21
35 31 22 23 22 24 25 27 28 30 31 31 34 34 35 34 32 31 28 27 31 23 21 18 23 24 25 26 26 26 23 23 23 22 22 21 21 21 21 21 21 20 18 19
29 29 19 22 25 27 26 28 30 31 31 33 35 35 37 30 28 28 27 23 19 20 19 22 24 24 24 25 25 24 23 22 22 22 21 21 21 20 20 20 21 20 19 19
28 25 23 25 26 24 26 26 27 30 31 35 37 31 28 24 25 22 18 19 16 18 21 23 23 22 22 23 23 24 24 23 23 22 22 21 20 20 20 20 19 18 18 17
24 21 25 24 24 22 23 25 26 30 31 28 31 24 21 27 21 15 19 15 17 19 20 21 22 22 22 22 22 22 23 23 23 23 22 22 22 22 20 18 19 20 19 18

GFSNW_sfc_temp_075.txt.gz
Temp
50 51 51 51 51 51 48 50 34 61 60 38 39 34 45 50 52 57 53 52 51 49 51 47 49 49 51 59 59 52 60 52 46 49 61 62 61 57 56 47 46 52 51 52
50 51 51 50 50 51 54 40 45 58 52 32 35 44 46 49 49 51 51 49 53 55 49 43 49 51 58 58 55 50 53 51 43 45 53 61 57 60 60 59 57 47 38 51
50 51 51 50 51 51 50 40 33 45 45 42 39 41 42 43 52 51 54 52 54 51 48 52 47 49 55 58 56 50 52 50 48 42 46 55 52 56 58 56 47 49 51 55
50 51 51 50 50 50 49 40 36 46 35 40 42 40 38 43 43 51 52 48 50 48 43 47 47 52 53 56 53 56 53 41 48 51 51 52 53 54 56 55 56 49 53 56
50 50 50 50 50 50 43 34 38 46 43 45 42 42 38 40 48 49 46 45 50 51 45 46 45 50 49 49 54 52 55 45 48 44 52 52 48 53 55 56 56 57 58 58
49 49 50 50 49 49 42 41 49 44 41 44 39 40 42 42 45 44 51 51 49 46 49 53 54 54 52 52 50 49 47 47 46 40 50 49 42 50 52 55 58 58 52 60
49 49 50 50 50 49 50 48 49 37 33 40 42 45 44 45 44 40 46 52 49 53 57 57 56 54 52 52 52 53 46 47 47 40 43 32 52 61 60 57 60 63 63 64
49 49 48 49 49 50 48 51 42 40 32 43 44 44 45 46 46 43 40 45 55 55 50 42 40 40 41 45 51 51 52 47 41 36 39 47 52 57 56 54 55 63 61 63
49 49 49 48 49 50 48 49 51 42 35 39 48 46 48 43 41 39 46 47 53 51 43 36 33 34 40 40 45 53 51 50 43 40 34 32 51 58 63 62 49 62 62 61
49 49 48 48 49 50 48 47 50 42 35 46 46 44 45 51 45 38 43 41 41 46 36 33 35 37 47 38 38 38 39 38 36 37 36 45 59 62 63 44 46 59 61 61
49 49 48 47 48 49 45 41 50 43 37 46 50 51 45 47 48 40 39 38 37 35 33 36 39 39 43 44 47 42 39 35 34 38 33 32 61 60 50 54 60 60 61 61
48 49 49 48 48 48 47 40 45 49 40 46 55 54 56 54 49 42 43 42 40 44 38 44 45 40 44 44 38 52 39 46 43 46 46 58 62 59 60 60 58 59 59 60
48 48 49 49 49 48 47 42 43 42 37 41 47 47 55 58 58 58 40 42 47 46 53 43 41 37 48 38 43 47 52 51 45 42 54 50 60 63 62 60 58 60 60 59
48 48 48 49 49 49 48 42 44 43 39 33 44 58 52 59 58 55 54 50 50 47 47 40 41 40 52 45 49 48 53 54 52 52 56 60 61 60 58 57 59 58 57 57
48 48 48 49 49 49 47 45 45 49 48 38 43 55 57 58 56 54 52 49 47 41 38 36 38 49 47 49 49 46 56 52 47 45 51 52 55 56 55 53 52 53 52 52
48 49 49 48 49 48 44 34 44 51 52 43 36 54 52 52 54 52 51 49 43 41 38 38 47 52 45 39 41 53 55 54 52 48 51 51 54 52 49 47 46 49 51 49
48 49 48 48 47 44 39 40 45 49 49 39 37 39 49 53 51 48 47 46 42 41 37 38 40 47 48 38 38 38 47 49 50 49 48 49 47 42 44 45 43 44 46 44
49 48 48 47 47 46 42 49 48 50 42 42 35 37 41 49 38 38 43 36 39 39 38 38 40 47 42 34 38 42 42 44 46 44 47 44 41 40 38 39 40 39 36 33
48 47 46 44 41 38 41 48 49 48 42 37 37 35 33 46 42 43 41 44 35 41 35 39 44 40 31 28 30 34 35 35 36 40 45 42 38 38 37 37 36 34 32 31
45 43 38 34 41 46 46 41 36 37 41 45 38 44 35 45 43 40 39 41 34 33 35 38 35 27 31 35 36 36 34 34 35 33 35 34 35 34 32 30 30 30 28 27
44 36 36 43 47 43 38 34 35 36 34 42 43 42 39 44 38 36 38 35 38 32 34 35 33 27 27 34 34 35 36 36 36 35 33 33 33 32 31 29 29 28 27 25
46 41 42 41 39 36 35 33 36 37 33 39 37 38 40 40 41 40 36 34 37 30 39 34 28 27 31 32 31 31 32 33 32 33 31 31 31 30 29 27 25 25 25 24
50 46 39 41 35 29 30 27 31 31 34 35 34 33 36 36 37 35 36 32 30 38 31 27 25 27 29 29 30 29 31 31 30 29 29 29 27 27 25 23 23 23 22 23
39 34 25 29 27 28 29 29 31 31 33 33 36 36 36 37 33 33 30 30 34 27 25 22 25 25 27 28 28 27 25 25 24 24 24 23 23 22 22 22 22 21 20 20
33 33 24 25 28 29 30 31 32 33 34 34 38 39 39 33 30 31 30 26 24 25 23 24 26 26 27 27 26 25 24 24 24 24 23 22 22 21 21 22 22 21 20 20
30 29 26 29 29 28 29 30 30 33 33 36 42 34 30 27 30 26 22 25 22 22 24 25 26 24 24 24 25 25 25 25 24 24 23 23 22 21 20 21 20 19 19 18
28 24 29 29 28 26 27 30 30 34 34 31 36 27 24 33 26 21 24 20 22 24 24 25 25 24 24 24 24 24 25 24 24 24 24 23 24 23 22 20 20 21 20 19

GFSNW_sfc_temp_078.txt.gz
Temp
51 50 51 51 51 51 49 46 34 56 58 37 37 33 43 49 52 57 54 53 50 49 51 50 50 50 52 59 57 50 54 50 43 48 58 59 56 52 51 38 38 46 43 46
50 50 50 50 50 50 48 39 44 56 52 32 35 42 43 46 48 50 51 50 53 54 50 45 51 52 58 58 55 49 51 47 39 43 48 57 51 51 51 53 47 36 34 46
50 50 50 50 50 50 47 40 33 45 44 44 39 38 40 41 52 50 52 52 54 51 48 52 47 50 56 58 57 50 52 46 43 35 37 45 45 50 52 51 42 43 41 46
49 50 50 50 50 49 44 40 36 44 34 38 40 42 42 41 43 52 53 48 49 48 43 46 46 52 54 57 54 54 52 41 45 47 48 48 42 45 48 43 45 42 49 49
49 49 50 50 50 50 41 34 38 46 41 43 41 41 39 41 45 46 45 45 50 50 45 47 43 48 48 47 55 52 55 42 46 43 50 46 47 52 53 52 51 54 52 48
48 48 49 50 50 49 39 45 48 39 40 42 39 39 42 43 46 47 44 46 45 47 50 50 50 51 50 49 48 48 47 45 43 38 48 47 40 48 51 54 57 55 49 57
49 48 48 49 50 49 47 49 47 37 32 39 40 45 46 44 47 44 49 50 42 49 54 57 53 53 53 48 49 53 45 45 44 37 42 30 49 61 59 55 57 60 61 63
50 49 49 49 49 50 48 51 43 39 32 41 43 44 44 45 47 45 46 50 51 46 47 44 40 40 42 46 50 49 52 45 38 35 36 45 51 57 55 53 53 62 61 62
49 49 49 48 48 50 49 50 51 42 34 37 47 44 46 42 43 44 46 53 50 44 44 38 31 31 38 38 43 52 50 49 40 38 32 30 48 59 63 62 46 61 61 59
49 49 49 48 48 48 48 48 50 42 33 43 46 42 42 49 46 42 42 39 41 46 38 33 33 33 45 36 37 38 39 39 34 34 33 42 56 57 62 42 43 58 60 59
48 48 49 49 49 48 46 45 51 43 36 42 48 50 44 45 45 38 41 38 38 36 32 33 36 36 41 41 45 39 39 34 34 36 33 30 59 57 45 50 53 57 57 57
48 48 48 49 48 47 48 42 50 50 39 43 52 53 55 54 51 41 40 38 39 45 39 42 42 37 41 42 36 48 35 45 40 43 42 56 60 54 58 59 55 54 55 57
48 48 48 49 48 48 48 43 46 44 37 37 42 44 54 59 57 55 35 43 48 43 42 39 39 36 44 36 41 45 48 50 43 44 52 54 48 55 57 58 56 57 56 55
48 49 48 48 48 48 48 41 43 41 38 31 40 57 50 58 60 56 49 48 52 48 42 36 38 36 45 40 45 45 49 47 44 41 44 49 47 48 54 54 54 53 54 53
48 48 48 49 49 49 47 44 44 45 42 35 41 52 58 58 56 54 55 51 47 43 38 36 35 46 44 47 47 44 50 43 39 38 47 46 43 49 51 49 48 49 50 49
48 48 49 49 48 49 43 33 43 46 46 36 34 48 52 56 56 53 50 48 46 41 37 36 42 51 46 38 39 43 47 50 49 44 49 50 48 47 47 46 46 47 46 44
48 48 48 48 48 45 38 39 45 47 46 38 35 39 51 56 52 49 48 50 43 40 36 36 41 45 43 39 36 37 39 44 47 47 48 47 43 39 42 43 44 45 42 39
47 48 48 48 48 45 41 48 48 49 41 44 33 35 41 52 41 39 45 38 39 38 38 39 40 45 44 33 37 40 40 43 42 41 46 43 43 43 41 42 42 40 35 34
48 48 47 43 41 37 41 48 48 49 43 35 35 33 32 46 39 41 39 38 33 39 35 39 43 40 29 28 30 33 34 34 35 40 42 42 39 36 35 34 33 31 29 29
46 44 38 33 40 48 46 41 34 37 39 42 38 44 35 44 40 38 38 38 35 32 36 42 36 28 33 36 36 36 35 36 36 32 31 33 33 32 31 29 29 28 26 25
42 37 36 43 46 41 37 33 33 34 33 41 42 40 37 46 38 37 40 35 37 31 33 33 31 26 28 33 33 34 35 35 34 34 32 32 31 30 29 27 27 26 25 23
44 41 43 41 38 35 33 32 34 35 35 39 39 39 41 40 41 37 35 32 35 30 38 33 25 25 30 31 30 30 31 31 30 31 29 29 29 29 27 26 24 24 24 23
48 43 36 36 35 30 29 27 31 31 34 35 36 34 37 39 39 35 36 31 30 38 32 25 24 27 29 29 30 29 30 29 28 27 27 26 25 25 24 22 22 22 21 21
39 35 26 30 28 28 27 29 30 31 33 33 38 35 37 35 33 32 31 31 34 29 27 20 23 25 27 28 28 27 24 24 23 23 23 22 22 21 22 21 21 20 19 19
34 35 25 26 29 31 32 33 33 33 34 34 36 37 37 32 30 32 31 27 25 24 20 22 24 25 26 25 26 25 24 23 23 23 22 21 21 20 20 20 20 20 19 18
33 30 28 31 30 29 30 31 31 33 34 36 40 34 30 28 31 28 24 26 21 21 23 25 25 24 24 24 24 25 25 24 23 23 22 22 20 20 19 20 20 19 19 18
29 26 30 30 30 28 29 31 31 35 34 32 36 29 25 34 27 22 23 19 21 23 23 24 24 24 23 24 24 24 24 24 24 23 23 23 23 23 21 19 20 20 20 19

GFSNW_sfc_temp_081.txt.gz
Temp
51 51 50 50 51 50 46 39 29 47 51 34 35 30 38 45 46 50 48 49 47 44 45 44 45 47 49 54 52 45 49 42 36 42 54 57 52 44 43 34 34 39 37 37
50 50 50 51 50 49 41 34 34 47 44 27 30 37 40 42 42 44 46 46 49 50 44 38 45 47 53 54 50 44 48 40 32 39 46 52 46 48 47 42 42 35 32 38
50 50 50 50 50 50 41 35 22 36 37 36 34 35 37 38 47 46 47 46 48 45 42 46 41 45 54 53 52 50 49 42 37 31 36 39 37 43 45 41 35 38 37 42
50 49 50 49 50 49 40 35 26 35 27 31 35 37 35 34 35 47 49 44 44 42 38 40 39 45 48 53 51 49 45 36 41 42 46 47 40 44 40 39 39 36 42 42
49 50 49 49 49 49 38 32 28 37 35 38 34 37 34 36 40 43 39 40 44 43 38 41 38 42 43 42 47 44 47 37 41 38 46 47 44 46 44 42 41 42 44 42
50 50 48 47 49 48 37 38 38 33 33 35 33 33 36 38 42 43 47 43 39 38 40 40 44 44 45 45 42 40 42 38 37 32 44 43 35 43 48 48 46 45 41 51
50 50 49 47 48 48 38 38 37 29 24 29 33 38 42 40 41 39 45 44 37 45 48 46 47 46 46 44 44 46 39 39 37 29 35 26 44 56 56 51 53 56 56 55
49 49 49 48 47 49 42 40 36 32 22 34 35 37 39 44 43 40 41 46 47 45 42 37 33 33 35 40 44 43 43 38 29 27 28 38 45 53 51 48 48 57 56 57
48 49 49 49 48 49 44 42 42 36 30 28 40 38 40 33 33 37 41 45 45 42 38 33 27 25 32 33 39 47 44 41 32 28 28 23 42 53 58 57 39 53 54 52
48 49 49 49 49 48 45 41 44 38 31 37 38 32 33 39 36 32 38 36 38 40 32 30 25 26 40 30 31 31 33 32 30 28 27 34 50 53 56 38 37 51 52 51
48 48 49 48 49 49 45 42 45 40 35 38 41 42 38 39 37 30 35 33 35 34 25 28 28 26 33 35 37 33 33 30 28 29 25 24 52 52 42 43 49 50 51 50
48 48 48 48 49 49 47 38 46 46 37 36 44 45 46 44 43 40 37 33 36 38 33 31 32 27 31 36 28 42 31 39 33 36 34 45 47 47 49 50 47 49 49 50
47 48 48 49 49 49 48 40 43 41 36 34 35 37 47 51 48 47 34 38 40 41 38 35 35 31 35 29 33 38 40 42 38 38 41 42 43 48 50 50 50 50 50 49
47 48 48 48 49 49 47 40 43 40 36 24 32 48 42 50 50 49 44 43 42 43 38 35 33 33 40 33 35 36 41 42 38 38 41 42 41 42 47 48 49 50 48 45
48 48 49 49 48 48 46 44 43 44 38 30 34 43 49 51 48 46 47 44 42 37 35 34 33 38 38 39 39 36 43 37 36 33 38 39 37 43 46 44 44 42 43 38
48 48 49 49 48 48 42 33 42 45 42 35 28 41 42 46 48 44 43 43 40 38 38 35 38 43 40 30 32 36 37 42 41 34 41 39 39 41 43 42 41 39 36 35
48 48 48 48 48 45 37 37 41 46 44 34 31 31 44 47 46 41 39 42 38 40 37 35 36 38 40 33 30 36 37 40 40 42 41 37 38 35 40 40 39 37 34 32
48 48 48 48 48 45 40 44 47 46 39 38 30 30 36 44 35 33 39 36 39 38 37 37 34 39 37 29 31 34 35 37 37 38 42 40 38 36 34 35 35 31 29 28
48 48 48 42 40 37 40 48 47 46 40 32 32 28 30 40 37 37 37 38 32 38 33 35 37 32 22 26 27 30 32 32 32 37 36 36 33 31 30 29 29 27 25 25
47 44 37 32 39 47 46 39 36 36 38 37 31 36 32 37 35 32 34 35 32 30 33 37 31 25 30 32 32 31 30 32 31 28 27 29 29 27 26 25 25 25 23 21
41 36 35 42 47 40 35 31 31 32 30 32 36 37 34 41 33 32 34 32 32 28 30 30 27 22 25 29 29 30 31 31 30 29 28 28 28 26 25 24 24 23 22 19
42 41 42 40 36 33 31 30 31 31 28 34 30 35 38 36 39 32 33 31 31 25 34 31 20 22 27 28 27 26 27 27 26 27 26 26 25 24 23 22 21 21 21 20
44 39 35 34 31 28 28 22 24 28 32 34 35 33 34 35 36 32 32 28 28 32 28 17 19 24 25 25 26 24 25 25 24 23 23 22 22 22 21 18 19 18 17 17
35 31 22 26 25 23 23 27 28 31 32 33 33 33 31 32 31 29 28 28 29 25 19 13 18 19 22 24 25 22 19 18 18 17 17 18 19 18 18 18 18 17 16 17
30 29 21 21 24 28 30 31 31 31 33 33 33 30 31 26 24 24 24 21 19 18 10 13 17 18 20 18 20 17 18 15 17 15 16 15 16 17 17 17 18 18 17 16
29 27 25 28 25 24 27 29 29 32 32 33 32 30 26 25 25 24 17 20 11 12 17 18 17 19 19 19 20 19 20 20 20 20 19 19 17 17 17 17 17 16 15 13
27 21 25 26 24 25 26 28 29 33 32 25 29 25 23 28 23 15 15 9 13 18 20 21 19 17 16 19 20 20 21 21 21 21 21 20 20 19 19 16 17 18 18 16

GFSNW_sfc_temp_084.txt.gz
Temp
51 51 51 50 50 50 44 36 28 42 48 29 31 26 36 43 43 47 44 46 45 43 43 40 42 43 46 53 52 43 46 40 32 39 51 53 50 45 41 33 33 35 35 36
50 50 50 50 50 49 38 34 34 42 43 25 27 35 37 41 40 41 42 41 44 45 41 36 42 44 50 52 47 43 44 36 30 35 43 46 42 46 45 43 39 33 30 36
50 50 49 50 49 49 39 33 27 31 35 34 32 31 33 35 46 43 45 43 45 43 40 44 40 42 51 51 49 49 48 39 35 28 35 39 36 39 42 39 34 34 34 40
50 50 50 50 49 49 39 33 26 32 27 31 32 33 34 32 34 43 45 41 42 40 35 38 37 43 45 50 48 46 43 33 37 40 43 44 42 42 40 37 39 35 38 41
49 50 50 50 49 49 37 30 27 31 30 36 33 34 33 34 37 39 38 36 40 39 35 35 32 39 39 39 45 41 43 33 37 35 43 44 41 44 43 39 40 39 42 38
50 50 50 50 48 47 36 38 36 31 30 31 30 31 35 35 38 41 44 43 38 35 39 41 42 41 42 42 39 38 38 35 31 29 39 39 33 41 44 43 44 41 37 47
49 50 49 49 48 46 39 38 33 28 23 27 32 35 37 37 39 34 41 43 37 43 47 45 44 43 43 42 42 43 37 35 34 28 33 24 42 51 52 48 50 48 50 51
49 49 49 49 49 47 42 36 34 32 19 30 32 34 36 38 39 40 40 43 45 45 42 35 32 31 33 37 41 40 41 35 27 25 27 35 42 49 47 46 43 49 52 51
48 48 49 49 49 48 44 42 37 35 30 26 37 33 35 29 29 32 39 42 43 42 35 30 24 24 31 31 36 43 40 37 30 25 24 20 38 51 56 54 35 48 52 52
48 48 48 49 49 49 45 42 40 35 30 33 35 30 31 36 33 29 33 35 35 38 30 28 24 25 37 28 30 30 28 27 28 25 23 31 45 48 53 36 35 47 48 48
48 48 48 48 49 49 46 42 45 38 30 36 39 40 34 35 35 30 34 30 32 34 26 26 28 24 31 31 36 33 32 29 26 27 24 24 45 46 39 41 45 46 47 46
47 48 48 48 48 49 48 39 45 44 34 34 41 42 43 42 43 36 37 33 34 36 33 31 31 25 26 30 26 40 30 34 31 33 32 41 45 44 47 46 43 44 44 47
47 48 48 48 48 49 48 41 42 41 35 34 36 37 44 47 45 45 31 35 38 34 36 34 32 31 34 26 30 34 34 38 36 38 39 39 41 45 46 46 46 46 46 44
47 47 48 48 48 49 48 41 42 39 35 26 32 45 39 46 46 44 43 42 41 40 39 34 32 30 37 31 34 33 37 40 35 35 38 39 39 40 41 43 44 40 40 39
47 48 48 48 49 48 45 43 43 44 38 27 31 39 44 47 43 43 43 43 41 37 35 33 31 34 36 37 36 32 35 34 32 30 34 36 34 38 39 37 36 37 36 32
47 48 48 49 48 46 42 33 41 44 43 32 25 38 41 43 43 40 40 42 41 39 35 32 37 40 37 31 32 32 35 35 35 34 35 33 33 35 39 36 34 34 32 31
47 48 49 49 48 44 38 34 40 45 42 33 29 28 38 42 40 38 36 40 40 37 37 35 35 35 38 32 28 30 32 35 37 40 39 34 33 30 37 35 34 33 30 29
48 48 48 49 48 45 40 44 46 46 38 37 29 26 34 41 32 35 39 34 38 35 36 37 35 35 35 25 29 31 32 35 33 35 37 35 34 34 32 34 32 28 27 26
48 48 48 44 40 37 40 47 47 45 39 31 31 27 25 40 34 37 36 37 31 36 33 34 33 28 20 24 25 26 28 28 30 34 33 33 30 28 28 27 28 26 25 24
48 43 36 31 38 47 46 40 35 36 37 38 32 32 30 37 33 32 34 34 31 29 33 37 27 22 26 28 29 28 28 28 29 28 26 28 27 26 25 24 23 22 20 19
40 34 34 41 47 40 35 30 30 32 30 33 32 34 33 40 32 32 33 32 32 27 29 30 25 21 23 27 26 27 28 28 27 26 26 26 27 25 23 23 23 22 21 18
41 41 42 40 35 33 30 29 31 29 26 31 28 32 37 36 39 33 32 28 31 25 34 25 14 21 25 25 24 24 26 25 24 26 25 25 24 24 23 21 20 19 19 17
43 39 34 33 31 27 25 24 27 27 32 34 34 32 34 35 36 32 32 28 27 32 21 15 17 23 24 23 23 22 23 23 23 21 22 23 21 21 20 17 17 17 16 16
34 29 18 26 17 16 19 24 28 30 32 33 33 32 32 32 29 28 27 24 26 20 12 13 17 19 20 23 23 20 14 15 14 12 13 13 15 14 15 15 16 16 15 14
28 28 15 14 19 22 29 31 31 31 33 33 32 29 30 27 25 25 24 22 16 15 9 10 16 17 18 16 19 16 16 12 13 10 13 12 13 15 15 16 16 16 15 15
29 26 23 25 21 23 26 28 29 32 32 33 31 26 21 20 21 18 12 17 9 9 10 16 14 13 13 14 16 15 14 14 15 15 16 16 15 15 15 16 16 15 14 13
25 21 23 22 21 20 25 26 27 32 31 23 25 21 21 26 16 10 11 4 7 14 17 16 14 17 14 15 16 16 15 14 12 12 14 14 17 18 17 15 15 16 16 13

GFSNW_sfc_temp_087.txt.gz
Temp
51 51 50 50 50 50 42 34 25 41 43 30 25 23 35 41 41 46 42 41 42 39 41 39 40 40 46 52 50 43 45 39 32 37 48 48 44 39 38 31 31 35 33 34
50 50 50 50 50 49 36 32 33 43 41 25 22 32 35 39 38 40 39 39 41 44 39 36 41 42 50 51 47 43 44 35 30 33 39 43 38 41 43 41 37 32 29 34
50 50 50 50 50 49 37 32 26 32 34 34 30 30 32 33 43 41 43 42 44 40 39 42 38 41 47 48 47 48 47 37 33 26 31 38 36 40 42 40 33 34 34 39
50 50 50 50 50 49 37 33 25 30 25 29 30 31 32 31 33 41 43 40 39 36 32 35 33 39 43 47 47 45 41 33 35 37 39 40 39 40 41 36 37 34 38 38
49 49 50 50 50 48 36 28 29 32 30 34 31 30 30 31 34 37 37 35 39 37 33 34 32 36 37 38 43 40 41 33 33 32 39 39 37 41 42 43 41 39 39 38
49 50 50 50 50 46 37 36 36 33 30 30 28 29 30 30 35 39 41 38 36 35 37 40 41 41 41 39 37 37 37 33 30 28 35 35 30 37 41 42 43 42 36 42
49 49 49 49 49 47 39 37 38 30 23 28 30 33 35 35 36 34 39 41 37 43 46 44 42 41 41 39 39 41 35 33 31 26 30 21 38 48 50 44 47 47 48 49
49 48 49 49 49 49 41 39 35 31 21 30 31 32 34 36 36 36 39 42 42 43 41 34 32 32 34 37 39 37 39 33 26 24 26 32 38 45 42 42 41 48 44 49
48 48 48 49 49 49 43 41 41 33 23 25 35 32 34 28 29 32 35 42 42 41 33 30 25 25 31 31 35 39 36 35 29 25 23 18 35 45 49 50 35 45 48 47
48 48 48 49 49 49 45 42 45 36 22 31 34 29 31 34 32 29 34 33 34 37 30 26 25 26 35 28 30 30 28 28 27 25 25 29 41 43 48 34 34 44 44 44
48 48 48 48 49 49 46 42 45 37 27 30 37 38 32 33 32 26 32 30 30 32 28 26 27 24 30 29 33 32 28 26 24 27 25 23 43 43 36 38 42 43 44 43
47 47 48 48 48 49 48 40 44 44 35 32 38 41 42 40 39 33 33 32 33 35 32 31 32 26 25 28 23 36 24 32 31 33 30 41 43 42 44 45 42 43 43 44
47 47 48 48 48 49 48 42 42 40 34 33 32 33 43 44 42 43 29 32 38 35 35 33 32 29 34 25 27 33 34 35 32 34 38 39 40 41 43 42 39 40 41 41
47 47 47 48 48 49 48 41 43 40 36 28 31 43 38 44 44 41 41 39 41 40 38 34 32 30 35 30 32 33 35 35 34 33 35 37 37 39 39 39 39 36 35 35
47 47 47 48 48 48 46 43 43 42 36 26 28 37 42 44 41 40 39 41 39 35 35 32 30 31 35 34 36 29 34 30 29 29 32 33 32 36 37 34 32 33 33 30
47 48 48 48 48 46 41 33 42 43 42 32 24 35 38 40 39 38 38 39 38 38 35 34 34 39 37 26 28 30 33 34 35 34 34 32 32 33 34 32 32 31 30 28
47 47 48 48 47 44 38 34 39 45 43 32 28 27 37 40 37 35 34 38 37 38 36 33 35 33 37 32 26 29 32 33 34 35 36 33 32 30 34 32 32 31 29 28
48 48 48 47 47 46 40 44 46 45 38 36 28 28 31 39 31 32 38 34 35 37 33 36 34 36 33 25 27 29 31 33 32 32 35 33 34 33 31 32 30 27 26 26
48 48 48 44 39 37 39 46 47 44 38 30 30 26 22 38 34 37 35 33 25 34 29 31 34 29 21 23 25 26 28 27 28 32 32 32 29 28 27 26 26 25 23 23
48 43 37 31 37 46 45 40 35 35 37 37 30 32 29 37 34 33 33 32 25 28 31 35 26 19 25 26 26 27 27 28 28 28 27 27 25 25 23 22 22 21 20 18
39 33 34 40 47 40 35 30 30 31 30 33 33 31 30 38 31 29 31 31 31 27 27 30 23 18 21 25 25 27 27 27 26 26 25 25 26 24 23 22 23 21 20 17
38 41 42 40 36 32 30 27 30 29 26 28 29 34 37 35 38 33 32 28 30 24 32 23 12 20 24 24 24 24 24 24 23 26 25 25 24 24 22 21 19 18 17 15
43 39 34 34 31 26 18 21 26 26 31 32 34 32 34 34 32 31 29 27 23 32 20 13 15 22 24 22 23 21 23 23 22 22 23 22 20 20 19 15 16 15 14 14
33 30 22 26 13 16 18 19 25 31 32 33 33 32 31 32 28 30 27 27 26 17 9 10 15 19 21 22 22 19 14 14 12 11 11 11 11 12 12 13 14 14 12 12
29 28 14 14 18 22 26 29 30 32 33 33 31 29 28 24 24 23 20 18 11 14 9 8 12 18 18 16 17 14 13 9 10 8 11 9 10 13 12 15 16 16 14 13
29 25 23 23 19 22 24 28 29 32 32 33 32 25 21 20 19 18 11 17 13 9 9 12 14 16 10 12 14 12 12 12 9 8 10 10 8 8 9 12 12 10 12 10
25 20 21 15 12 16 24 26 27 30 31 24 23 17 18 23 16 13 13 5 4 13 12 12 10 13 15 14 13 11 13 12 10 10 12 10 12 13 15 12 14 15 14 9

GFSNW_sfc_temp_090.txt.gz
Temp
50 50 50 50 50 49 41 33 24 38 41 27 30 19 31 39 38 43 36 34 33 32 37 37 37 38 43 50 48 41 44 38 32 37 44 47 43 38 37 27 27 33 32 32
50 50 50 50 49 48 34 30 32 39 40 24 25 29 32 36 35 38 38 33 34 36 33 32 40 37 46 47 45 41 44 35 30 33 39 43 39 40 43 39 35 31 28 30
50 50 50 50 50 48 36 32 23 28 35 34 29 28 29 30 40 38 40 38 37 33 35 39 35 39 45 47 46 47 47 37 34 27 31 38 35 40 41 38 30 33 33 34
49 50 50 50 50 49 39 32 24 30 21 25 28 30 30 30 31 40 39 33 34 34 30 34 32 38 41 46 45 44 42 32 36 37 38 38 37 37 38 36 36 32 36 36
49 49 49 50 49 49 38 28 28 29 27 31 29 30 27 27 30 34 34 33 38 37 33 34 32 35 36 35 41 40 41 31 33 32 38 36 33 37 37 38 40 39 41 39
49 49 49 49 49 46 37 36 37 30 28 28 26 29 31 30 35 35 39 37 36 34 36 38 39 39 39 39 37 36 36 33 30 29 33 33 29 33 38 39 40 39 33 41
49 49 49 49 48 47 39 38 36 29 20 26 29 31 32 32 34 32 38 39 35 39 43 42 40 39 39 38 39 40 34 33 30 26 30 19 36 44 43 40 43 44 44 45
49 49 48 48 49 49 40 39 36 30 18 29 30 30 32 33 35 34 35 38 39 41 39 33 32 32 33 36 38 36 38 32 26 23 25 31 37 41 39 36 38 43 42 46
48 48 48 48 48 49 43 40 41 35 23 24 32 30 31 29 29 31 34 41 40 39 32 29 25 25 30 30 33 36 34 34 29 25 22 16 33 41 45 43 32 40 42 44
48 48 48 48 48 49 44 41 43 36 28 30 32 29 29 33 30 28 32 33 33 36 29 25 25 26 33 27 29 29 27 28 28 25 26 29 39 41 45 29 30 40 41 44
47 48 48 48 48 48 45 41 44 37 30 30 35 36 32 32 31 25 31 30 30 32 27 27 27 24 29 29 32 31 28 25 24 29 25 21 39 40 33 38 41 41 41 39
47 47 48 48 48 48 48 40 43 43 35 33 36 38 41 39 37 32 32 30 30 34 27 30 30 28 26 28 25 35 23 31 30 30 30 39 40 38 41 42 38 40 39 39
47 47 47 48 48 48 47 42 41 39 34 35 33 33 40 42 41 41 28 31 36 36 35 31 32 28 34 25 26 33 31 36 31 32 34 36 37 38 38 36 35 36 37 35
47 47 47 47 48 48 48 42 42 39 36 26 30 41 36 42 41 39 38 37 38 37 36 33 32 29 36 31 33 32 32 34 30 32 33 35 34 35 36 34 34 33 33 33
47 47 47 47 48 48 47 44 43 43 37 27 28 36 40 41 39 38 38 37 35 34 34 33 29 32 34 35 34 27 32 29 26 28 31 32 30 32 33 30 29 30 29 27
46 47 48 48 48 48 40 33 42 43 42 34 23 35 36 37 37 35 34 35 35 38 36 34 34 37 35 28 22 30 32 33 34 33 34 32 31 31 31 29 29 29 28 27
46 47 48 48 48 43 38 34 40 45 42 32 26 27 36 38 36 33 32 36 37 36 35 33 31 31 37 31 28 29 31 33 33 35 34 33 32 29 32 31 29 29 27 26
47 47 47 47 47 45 40 43 46 45 38 36 28 27 31 39 31 30 34 30 33 36 35 36 34 35 33 24 27 29 30 32 31 31 34 31 32 30 29 30 28 25 24 24
47 47 48 43 41 37 39 46 46 44 37 30 27 24 22 38 34 36 35 34 26 32 30 30 31 27 25 21 24 26 27 26 25 30 31 29 27 25 25 24 25 23 22 21
47 43 37 31 37 46 45 39 35 35 36 36 29 29 25 34 34 32 31 29 23 25 29 33 29 18 25 25 26 26 26 25 26 26 27 25 25 23 22 21 22 21 18 17
40 33 34 40 46 39 35 30 30 31 29 32 33 29 28 36 31 29 31 26 24 21 26 28 21 19 22 25 26 25 26 26 25 25 25 25 25 24 22 21 22 21 19 16
38 40 42 41 36 32 30 25 29 29 26 29 30 32 33 35 36 30 31 30 30 22 32 24 14 19 23 24 23 24 24 24 23 24 23 23 24 22 20 18 17 16 16 13
43 38 33 33 31 25 18 19 26 26 30 26 33 32 34 33 32 30 31 27 21 30 19 18 14 22 23 22 22 20 22 23 23 21 21 20 18 18 17 13 12 12 11 10
32 30 24 24 20 17 19 21 21 26 32 33 33 32 31 32 30 30 27 23 26 17 10 12 14 18 21 21 21 18 11 12 12 9 10 9 10 8 8 5 5 7 7 5
29 28 19 16 18 20 27 31 31 32 33 27 31 30 28 21 20 24 20 22 17 15 9 6 13 17 18 16 17 13 12 7 7 5 7 5 7 11 11 10 10 11 7 6
27 22 18 23 25 24 26 29 29 32 32 27 30 26 20 16 17 18 13 18 14 10 9 12 13 11 8 8 10 9 9 9 8 7 9 9 7 8 8 11 11 7 7 3
24 16 19 14 16 18 22 26 27 30 30 18 22 16 17 21 12 11 12 9 9 12 12 10 9 12 10 6 7 7 9 10 8 8 10 9 11 11 13 12 13 14 12 5

GFSNW_sfc_temp_093.txt.gz
Temp
50 50 50 50 50 49 41 34 24 40 43 29 31 26 30 38 36 40 39 35 32 31 32 32 35 35 41 48 48 43 46 42 35 38 46 49 46 41 41 36 30 35 33 36
50 50 50 50 50 48 36 30 31 41 41 22 25 32 32 35 34 35 38 35 35 34 32 31 35 36 46 48 45 42 45 38 32 33 42 47 42 44 44 40 37 32 31 38
50 50 50 50 50 47 38 30 22 31 34 34 28 28 30 28 38 37 39 37 35 33 32 36 33 33 43 47 46 46 46 40 37 32 35 41 38 41 44 41 32 35 36 40
49 49 49 49 49 49 41 32 24 31 22 26 28 31 28 26 27 36 37 34 35 33 30 32 32 37 40 45 45 46 44 34 38 39 41 41 40 40 41 38 40 34 40 41
49 49 49 49 49 49 38 30 29 32 29 31 29 31 28 27 31 32 33 32 34 37 33 33 31 36 37 37 43 42 44 35 38 36 39 40 37 41 40 41 42 41 43 41
49 49 49 49 49 46 38 37 37 32 30 30 27 28 30 30 34 36 38 37 35 35 36 38 40 42 41 40 38 39 39 37 35 31 37 37 33 38 41 42 44 44 39 46
49 49 49 49 49 47 41 39 36 30 24 29 30 31 32 31 34 32 38 39 35 41 43 43 42 41 40 40 41 42 37 36 35 30 33 22 39 47 46 43 45 45 46 49
48 49 48 48 48 48 41 39 36 32 24 31 31 32 32 34 35 35 36 39 41 42 39 36 35 35 37 37 39 39 41 37 31 28 29 34 39 42 41 40 41 42 41 46
48 49 48 48 48 48 42 40 41 35 28 28 33 31 33 30 30 32 36 42 42 40 35 33 28 26 31 32 35 39 38 38 34 30 25 22 36 42 47 45 36 41 42 47
48 48 48 48 48 48 44 41 43 36 30 34 34 32 31 35 33 30 33 34 35 38 31 30 28 28 35 29 30 31 32 32 29 28 27 33 38 42 46 33 34 41 41 39
47 48 48 48 48 48 44 41 43 38 32 34 36 38 34 35 34 29 34 32 32 33 29 30 30 28 31 31 34 32 31 29 27 30 26 23 40 43 36 39 40 40 39 37
47 47 47 48 48 48 48 40 43 43 36 34 38 40 42 41 41 35 34 31 32 35 31 32 31 30 31 29 28 38 30 32 30 32 31 35 37 36 37 39 35 36 36 36
47 47 47 47 48 48 47 42 41 39 34 35 36 36 42 42 43 44 33 34 37 36 36 32 32 29 33 27 29 33 34 35 32 32 33 32 34 36 35 34 31 33 35 34
46 47 47 47 48 48 48 41 42 39 35 29 33 42 39 45 43 42 42 41 41 39 38 34 31 29 36 31 34 32 33 35 30 32 33 34 33 33 33 32 33 31 31 33
46 47 47 47 48 48 46 44 42 43 37 30 32 38 42 43 40 40 41 40 38 36 34 33 32 36 34 36 34 30 33 30 28 28 31 31 29 31 31 29 28 28 30 29
46 47 47 47 47 48 41 33 41 43 42 33 29 38 39 39 39 37 37 38 37 38 35 34 35 39 36 30 29 30 32 33 33 32 33 31 30 30 31 29 29 30 28 28
46 46 46 47 48 44 37 36 41 45 41 33 29 30 37 38 37 36 35 38 37 38 35 34 35 36 38 32 30 30 32 33 33 33 34 30 30 28 31 30 29 29 28 27
46 46 47 48 48 44 40 44 45 45 37 36 28 28 33 40 33 32 36 34 36 36 35 36 34 37 35 28 28 30 31 33 31 32 33 32 31 30 29 30 29 27 25 25
45 46 46 43 41 37 40 46 46 44 39 30 31 26 26 39 35 36 35 37 30 36 32 32 34 31 28 25 27 27 27 27 27 31 31 30 28 26 26 26 26 24 22 21
46 43 36 31 37 46 45 39 35 35 36 36 30 32 29 36 34 32 32 32 30 26 32 35 30 26 26 27 27 27 27 26 28 28 26 27 25 24 23 22 22 21 19 18
39 33 33 40 46 40 35 31 30 30 29 33 34 32 31 38 32 31 32 29 29 25 30 29 27 24 23 26 26 27 27 27 27 27 26 26 26 25 23 22 22 21 19 17
38 39 42 40 34 33 28 26 30 29 27 32 32 33 34 35 36 32 32 31 30 24 33 28 22 21 24 25 24 24 25 25 24 25 24 24 24 23 21 20 19 18 17 15
42 37 34 33 31 26 22 19 25 26 31 29 32 31 34 34 33 32 32 27 27 31 26 23 19 23 24 23 23 21 23 24 23 21 21 21 19 20 18 14 14 14 13 14
33 31 27 24 21 24 21 25 25 28 28 30 34 32 32 33 31 32 28 29 29 23 19 20 20 21 21 22 22 19 14 14 14 13 13 12 12 11 11 10 11 11 11 10
30 30 24 21 21 21 26 32 32 33 34 32 32 32 32 27 27 27 25 24 23 23 22 17 20 21 20 18 18 16 14 12 12 13 13 11 12 13 12 12 13 12 10 10
28 25 20 24 26 26 29 31 31 33 33 30 32 27 24 22 23 23 22 22 21 20 17 17 19 16 15 14 15 13 12 13 13 14 14 13 12 13 14 14 14 12 12 10
24 20 20 20 17 18 26 28 28 31 32 28 26 20 22 24 18 18 18 18 16 15 16 17 17 17 14 12 13 12 14 14 14 14 15 14 15 15 16 15 15 16 15 11

GFSNW_sfc_temp_096.txt.gz
Temp
50 50 50 50 50 50 49 47 38 50 52 38 39 34 36 39 40 45 40 39 34 30 31 32 34 34 43 53 54 48 50 48 40 45 51 58 56 51 50 42 36 42 41 46
50 50 50 50 50 48 50 41 45 52 48 30 34 40 40 40 37 39 38 38 37 34 31 31 33 37 46 50 49 46 50 45 36 37 47 53 49 50 51 48 47 37 37 45
50 50 50 50 50 47 51 43 34 46 43 41 35 33 35 33 43 38 39 36 36 34 33 37 33 35 43 45 47 48 51 46 42 38 42 49 43 47 50 47 42 42 44 47
50 50 50 49 49 49 50 42 35 38 32 36 35 35 33 31 30 40 40 37 38 36 31 34 33 36 41 45 44 46 48 41 45 47 48 49 47 46 47 45 46 40 46 47
49 49 49 49 49 49 44 35 41 41 38 39 37 35 32 32 35 35 36 36 40 43 35 34 32 35 37 38 45 41 43 39 45 40 46 46 43 46 47 47 47 47 48 49
49 49 49 49 49 49 41 45 44 40 38 39 36 36 36 35 39 40 43 42 41 41 40 41 43 44 44 44 41 41 43 42 41 36 43 43 38 43 46 48 50 49 44 51
49 49 49 49 49 48 44 42 42 37 34 38 37 37 38 38 39 36 43 45 40 46 49 51 50 47 47 47 47 47 43 42 43 37 39 28 43 52 52 48 49 50 51 53
49 47 48 49 48 49 44 42 39 38 33 40 39 38 38 41 43 41 41 45 47 49 47 43 40 42 42 44 46 45 48 44 37 34 36 40 42 45 44 43 44 47 45 50
48 47 49 49 48 48 46 43 44 39 36 41 40 39 40 38 39 40 42 48 50 48 44 41 33 32 36 36 40 48 46 46 42 37 30 27 39 48 53 51 40 43 43 45
48 47 49 48 48 48 46 42 44 38 34 46 42 40 39 42 41 37 41 41 43 47 39 36 34 35 40 34 34 35 38 37 34 33 32 37 41 49 53 37 34 42 41 37
48 47 48 48 48 48 47 42 45 40 38 45 44 45 42 43 42 36 41 41 41 39 35 35 34 34 37 37 38 36 37 35 34 35 31 27 36 47 38 35 39 39 37 36
47 47 48 48 48 48 48 40 43 44 37 38 46 48 50 49 48 42 44 37 38 40 37 38 35 31 34 34 32 43 32 34 32 32 29 34 35 33 34 36 34 35 36 36
47 47 48 47 48 48 48 45 42 41 35 38 40 44 51 52 50 53 40 45 43 41 41 35 34 31 40 31 34 35 36 40 34 33 32 33 34 35 34 34 33 33 35 35
46 47 47 47 48 48 48 45 44 41 37 32 43 50 47 52 52 50 50 47 48 47 42 38 34 32 43 37 38 36 39 40 33 32 34 36 35 34 35 34 35 34 36 36
46 47 47 47 48 48 48 47 48 47 38 33 41 49 50 50 49 48 48 46 45 42 41 38 36 45 40 41 40 37 37 31 32 31 32 33 30 32 32 31 31 34 36 34
47 47 47 47 47 48 45 34 46 50 47 34 34 48 45 46 47 46 45 46 45 44 42 39 36 43 40 35 32 32 34 36 34 32 33 32 31 32 33 32 34 35 35 35
46 46 47 47 47 44 38 40 46 48 44 34 35 39 44 45 45 45 44 45 45 44 43 39 40 43 43 36 33 33 35 36 36 36 36 32 35 33 36 36 35 34 34 34
46 47 46 45 46 45 40 47 46 46 37 36 32 36 38 44 40 39 46 41 40 40 40 39 39 44 43 33 33 36 37 37 36 36 38 37 36 36 35 36 35 33 32 31
47 46 46 44 41 37 40 46 46 45 40 36 33 33 31 42 38 40 39 43 32 45 36 38 40 37 31 30 34 34 34 34 34 35 35 35 32 32 32 32 31 29 27 27
46 42 37 32 39 46 45 40 35 36 41 41 33 42 34 38 35 34 34 39 37 31 36 39 34 34 31 32 33 32 32 33 35 32 30 31 29 28 28 26 27 26 24 23
39 33 35 41 47 41 37 32 32 34 31 37 37 39 37 42 35 34 38 35 37 31 36 33 32 31 28 31 31 33 34 34 33 32 31 30 30 29 27 26 26 25 24 22
39 40 42 40 36 34 32 31 33 31 32 38 34 35 42 40 39 38 35 32 34 27 37 31 29 26 29 30 29 30 31 31 30 31 29 29 28 28 27 26 24 23 21 19
41 38 34 34 33 29 27 24 29 30 35 36 36 33 39 36 36 34 34 29 29 36 30 31 29 27 29 29 29 27 29 29 28 26 27 26 25 25 23 19 19 19 18 17
34 33 29 30 28 32 33 34 36 37 37 36 37 34 34 34 32 34 29 32 33 28 26 28 27 26 26 27 26 24 19 19 20 20 20 18 18 17 17 17 18 17 16 15
33 34 29 28 32 32 33 36 36 35 39 36 35 36 40 33 31 32 30 27 27 30 30 27 27 26 25 23 23 21 19 17 18 20 18 17 18 18 17 18 19 17 15 15
33 30 28 30 31 30 32 33 33 37 38 40 42 32 31 30 32 27 28 28 28 27 27 27 26 23 22 21 21 20 20 21 20 20 20 19 18 19 20 20 19 17 17 15
28 27 29 31 32 32 31 32 34 36 37 34 37 28 29 32 29 27 29 28 26 25 25 28 27 24 21 20 20 19 20 21 22 21 22 21 21 21 22 21 21 22 20 17

GFSNW_sfc_temp_099.txt.gz
Temp
51 51 50 50 50 50 48 55 44 57 59 42 45 41 44 45 46 49 45 43 35 30 31 31 32 35 41 57 58 52 56 48 41 46 58 55 57 51 51 41 40 45 42 41
50 50 50 50 50 49 57 49 52 58 54 35 39 46 45 47 45 44 43 36 37 35 32 30 33 34 45 50 52 50 53 47 39 39 49 53 51 53 56 52 48 42 38 41
50 50 50 50 50 50 52 51 38 52 54 47 41 39 40 39 48 44 41 38 41 38 35 39 32 33 43 50 50 47 50 49 46 38 43 51 46 52 53 51 44 45 47 50
50 50 50 50 50 50 51 48 39 46 38 43 42 41 39 35 36 46 48 44 45 41 33 34 32 38 39 46 48 44 46 38 39 49 54 53 50 48 50 47 50 43 48 50
50 50 50 49 50 50 48 35 46 50 45 45 43 41 38 37 42 43 41 39 45 46 39 37 33 39 39 35 43 40 46 41 45 44 51 51 47 50 50 50 50 50 51 47
50 50 50 50 49 49 49 52 53 46 44 44 43 43 41 41 45 46 48 46 45 44 44 47 47 49 48 46 43 42 44 44 41 37 47 48 39 47 50 52 53 52 45 49
50 50 49 49 49 49 54 54 51 39 38 46 43 43 44 43 45 42 48 50 44 49 55 56 55 51 51 52 50 50 44 45 45 38 42 32 46 56 55 51 50 51 53 51
49 49 49 49 49 49 48 54 48 42 34 47 44 43 44 47 48 47 47 49 52 54 52 46 44 43 43 48 49 49 50 46 41 38 39 43 46 48 48 47 41 49 48 49
49 48 48 49 49 49 48 49 52 46 36 43 45 43 46 43 44 45 47 54 56 53 49 44 36 34 40 39 44 53 51 50 45 41 35 29 36 47 55 55 38 45 48 44
48 48 48 49 49 49 48 47 47 45 38 49 47 42 42 47 45 44 47 46 47 52 42 37 37 36 45 36 37 39 41 41 37 39 37 37 36 46 52 39 31 42 43 40
48 47 47 49 49 49 49 43 47 42 40 47 49 50 45 46 47 39 45 44 44 41 37 38 36 35 40 39 43 39 38 34 36 39 36 29 37 46 36 32 36 38 39 39
48 47 48 48 48 48 49 42 46 45 39 45 51 52 53 52 51 47 48 41 43 43 38 40 35 35 38 40 31 47 34 37 33 32 29 34 37 35 36 37 34 35 36 38
48 47 48 48 48 48 49 45 44 40 36 42 47 49 55 58 55 56 43 50 49 42 46 37 35 32 43 35 37 40 40 46 34 33 33 35 37 39 38 37 34 36 39 39
47 47 47 48 48 48 48 45 46 42 40 36 45 57 52 57 57 54 54 51 52 50 49 39 36 34 47 39 42 39 40 43 37 32 35 36 37 36 37 38 40 40 41 41
47 47 47 47 48 48 50 48 46 51 43 34 40 52 56 56 54 52 52 50 48 46 41 41 38 45 43 46 45 36 40 33 33 30 33 34 32 34 36 34 34 39 40 40
46 47 47 47 48 48 47 36 51 52 48 40 36 51 50 52 52 51 50 50 48 46 42 40 45 47 42 36 36 35 36 39 36 33 35 33 32 34 36 37 39 41 40 41
47 47 47 47 48 47 39 38 42 50 47 37 36 42 48 50 50 49 47 48 44 44 41 43 44 44 44 37 36 36 38 41 41 38 38 35 37 36 41 41 40 39 39 39
47 47 46 47 47 45 40 48 46 46 38 38 34 39 42 49 39 39 46 41 42 41 42 42 42 46 45 34 39 41 41 41 40 40 41 40 41 41 40 41 41 38 36 35
47 47 46 42 39 36 41 47 46 46 39 35 35 35 32 48 42 42 44 44 35 46 37 38 45 41 33 32 39 40 39 38 39 39 40 39 37 36 36 36 35 34 31 30
46 43 37 32 39 46 45 40 36 35 37 42 35 45 36 44 42 39 37 41 38 34 39 45 37 37 37 37 36 37 36 38 39 34 33 33 33 33 32 30 31 30 27 26
41 34 34 42 47 42 38 33 34 36 33 40 39 43 39 47 35 36 42 37 41 33 37 36 34 33 31 36 36 38 38 39 37 37 36 35 35 32 31 29 29 28 27 24
40 40 42 41 37 35 32 32 36 34 35 42 37 40 45 43 46 41 41 34 37 29 41 33 31 28 33 34 33 34 36 36 35 36 34 33 32 32 30 29 27 24 23 21
40 36 33 34 34 30 29 26 30 32 39 39 39 35 39 42 41 35 36 30 31 42 32 33 30 31 33 34 34 33 34 33 32 31 31 30 28 28 27 23 22 23 20 20
33 32 29 31 29 34 36 38 39 41 40 39 38 36 38 37 32 34 30 35 37 30 28 29 31 29 29 30 29 27 23 24 25 24 23 21 21 20 21 21 21 20 19 19
32 34 30 30 36 37 36 38 39 40 42 41 38 39 39 36 33 34 33 29 28 32 31 30 30 29 28 27 27 25 22 22 22 23 21 20 20 21 20 22 23 21 19 18
34 34 31 34 33 31 33 35 33 41 40 43 41 35 32 31 33 30 29 30 30 29 30 29 29 27 27 25 24 24 24 25 24 23 23 23 22 22 23 23 22 20 20 18
30 30 32 34 35 34 33 37 35 38 37 35 39 30 31 37 31 30 36 30 29 29 28 30 29 27 25 24 23 22 24 25 25 25 25 24 25 24 24 23 23 24 23 20

GFSNW_sfc_temp_102.txt.gz
Temp
51 51 51 51 51 51 49 54 43 58 60 42 46 42 45 47 49 52 48 46 40 33 32 33 31 31 36 45 54 45 55 46 38 44 48 55 52 46 46 34 39 40 34 33
51 51 51 50 50 51 54 50 52 58 55 36 40 48 47 49 47 47 44 42 43 39 32 30 34 34 41 49 50 43 48 44 31 38 47 46 46 49 52 49 41 41 35 34
51 51 51 50 50 51 50 50 38 51 53 48 43 41 42 41 51 47 48 46 46 44 36 42 34 33 38 49 48 47 49 44 37 34 41 42 37 40 45 47 35 40 38 38
51 51 50 50 50 51 49 48 40 48 39 43 44 45 42 39 39 49 51 45 46 43 33 36 35 39 40 47 46 45 44 33 39 42 47 48 42 41 44 47 48 34 43 41
51 50 50 50 50 50 51 35 45 50 46 48 45 42 40 40 44 45 43 43 46 46 39 38 34 40 41 38 43 39 43 34 34 34 49 44 41 48 48 50 50 49 44 37
50 50 50 50 50 49 51 54 54 48 45 47 43 43 43 43 46 48 50 48 45 43 43 46 47 50 49 46 40 40 39 40 37 35 47 45 36 46 48 46 47 45 36 40
50 50 50 49 50 49 51 53 50 43 38 45 45 45 46 45 46 43 48 51 45 49 55 54 56 53 52 52 50 51 41 42 43 36 40 26 43 53 48 44 44 47 47 44
50 50 49 49 49 49 50 51 47 42 36 46 46 45 45 48 50 48 48 51 52 55 51 45 41 42 40 47 50 50 50 43 38 34 35 39 43 43 40 38 34 43 44 43
49 49 49 49 49 49 49 51 53 45 37 40 48 45 46 42 43 45 48 55 55 53 47 42 34 33 39 38 44 54 51 49 41 40 33 26 33 41 49 49 29 39 42 40
49 48 48 49 49 49 50 47 52 47 36 48 48 42 41 47 44 42 46 46 47 51 40 36 34 31 44 33 36 37 39 39 35 37 35 32 36 43 47 34 27 38 39 37
48 48 48 49 49 49 49 47 51 47 40 46 50 50 45 46 46 38 44 42 42 40 35 36 36 35 39 38 42 40 34 32 32 34 31 25 38 42 32 31 35 36 37 36
48 47 47 47 49 49 48 43 47 46 38 43 49 51 53 51 51 45 45 43 42 43 37 36 36 33 38 39 30 45 32 37 33 31 28 34 37 35 36 37 34 35 36 39
48 47 48 48 48 49 48 47 45 41 36 41 45 48 56 59 56 56 41 43 49 44 47 39 37 32 42 33 36 40 41 46 34 33 33 34 36 38 38 38 36 40 41 41
47 47 48 48 48 48 48 47 45 44 40 35 43 59 53 60 58 56 54 50 51 50 49 40 37 33 46 38 41 39 41 43 37 32 35 36 35 36 38 39 41 41 43 42
47 47 47 48 48 48 49 51 48 49 41 34 41 52 56 58 56 54 53 50 47 46 42 39 36 43 42 44 44 34 39 33 32 29 33 34 31 34 37 36 38 41 41 41
47 47 47 47 48 47 47 36 51 53 47 39 35 44 51 54 54 52 50 50 47 46 43 40 44 49 42 36 33 35 37 38 36 33 36 33 33 36 40 39 39 41 40 39
46 47 47 47 47 48 41 39 41 46 48 38 35 40 49 52 50 48 47 49 46 45 42 42 43 44 43 38 34 36 40 41 39 39 40 36 37 37 42 42 42 42 40 39
47 47 47 47 47 46 44 48 45 46 40 40 32 37 40 50 41 40 48 41 42 42 41 43 41 45 43 33 37 40 41 42 41 41 43 42 42 43 42 43 42 40 35 34
47 46 47 44 43 37 43 48 47 45 39 33 35 33 32 47 43 44 43 44 33 45 36 40 43 39 32 33 39 41 40 39 40 41 42 40 38 37 36 35 34 31 28 28
46 45 37 32 38 47 46 41 36 36 37 38 35 43 36 44 40 38 38 40 36 32 38 46 38 33 36 39 39 38 38 40 40 35 34 34 33 33 31 29 29 28 27 25
42 34 34 41 47 41 36 33 32 35 33 41 42 42 39 47 36 36 41 35 39 32 36 36 34 31 31 38 38 39 40 40 38 37 36 36 34 32 31 29 29 27 25 22
43 40 41 41 36 34 32 31 36 35 34 42 38 40 45 39 46 37 41 35 37 29 42 34 31 28 34 35 34 35 36 36 35 36 33 33 32 32 30 27 24 23 22 21
41 35 33 33 33 29 29 27 31 32 39 41 40 36 41 43 40 34 35 31 31 41 32 31 28 31 33 34 34 32 34 33 32 30 30 28 26 26 25 22 22 22 20 20
33 31 28 31 29 33 36 38 38 42 40 40 39 37 38 39 34 33 30 35 37 30 28 29 29 29 29 30 30 26 23 24 24 23 22 21 20 20 20 19 19 18 18 16
31 32 29 31 37 36 37 40 39 41 42 40 39 38 40 36 33 34 33 30 29 32 29 28 28 29 28 27 26 24 23 22 22 23 21 19 19 20 20 21 22 20 16 15
32 33 32 35 33 31 34 34 34 41 40 43 42 36 32 32 34 31 30 31 29 28 28 28 29 27 26 25 24 24 25 25 24 23 23 22 20 21 23 23 22 18 18 15
31 31 33 34 34 33 33 35 37 40 39 34 38 32 30 36 31 30 35 30 29 29 28 30 29 27 25 24 24 23 25 25 25 25 25 24 25 24 24 21 22 22 23 18